ECMWFFLT1_sfc_temp_105.txt.gz
Temp
66 65 66 66 67 67 67 67 68 69 70 70 69 69 69 68 67 67 68 67 67 67 68 68 67 67 68 70 70 69 68 67 65 65 66 67 63 64 66 65 65 66 66 65 64 60 59 59 62 66 67 67 66 66 67 68 69 70 69 69 72 72 73
67 66 67 68 68 68 67 68 68 68 68 69 69 68 68 68 67 66 67 66 65 66 67 67 68 69 67 66 66 66 66 67 68 67 65 64 64 64 64 64 64 63 64 65 65 64 59 59 60 62 62 66 66 66 67 68 68 70 70 71 73 73 72
67 67 68 66 66 68 68 67 67 66 67 67 67 67 67 67 67 67 66 66 65 65 65 65 67 67 67 67 67 66 67 66 68 67 65 66 66 66 64 64 63 63 64 64 63 63 63 62 58 60 62 61 60 64 66 65 67 69 71 71 70 70 68
64 65 66 66 67 67 66 66 65 65 65 65 65 65 65 65 65 65 64 64 64 64 65 64 64 65 66 66 67 67 67 66 67 68 68 67 66 64 65 64 63 64 63 62 62 63 62 60 60 60 62 62 61 61 65 66 68 68 68 68 69 70 70
65 64 64 63 64 64 63 63 64 64 64 64 64 64 63 63 64 64 63 62 62 62 62 64 65 65 66 67 66 66 66 67 68 68 68 67 68 67 65 66 66 68 67 65 66 65 63 62 62 61 61 63 63 64 66 65 66 67 68 69 70 70 72
63 63 62 62 62 62 62 62 62 61 62 62 62 61 61 62 63 63 62 61 60 61 61 61 62 63 62 64 66 66 66 67 66 67 66 67 67 66 66 67 68 68 67 68 68 67 66 64 62 60 64 66 61 62 65 65 63 67 70 70 71 71 71
62 62 62 61 61 61 61 60 60 60 60 60 60 59 61 62 62 61 61 61 61 61 61 60 61 61 61 62 63 63 64 64 65 66 67 67 68 68 68 67 67 68 68 68 67 65 64 63 61 60 61 62 62 61 62 62 64 63 66 68 70 70 70
62 61 61 61 60 60 60 60 60 61 61 61 60 61 62 61 62 61 60 60 60 60 60 59 59 60 60 61 61 62 62 62 63 63 65 66 67 67 68 68 67 68 69 69 68 66 66 64 63 62 61 58 59 59 58 61 62 62 64 68 70 70 70
61 61 60 60 60 60 60 60 59 59 60 61 61 62 62 61 60 60 60 58 58 58 58 58 58 59 58 58 59 59 59 62 60 61 62 63 64 65 66 67 67 68 69 70 69 67 66 66 66 64 62 60 58 56 58 58 60 62 65 63 66 68 68
59 58 58 58 59 59 59 59 59 59 59 59 59 60 60 61 60 60 59 58 58 58 58 57 57 58 58 58 57 57 57 58 59 59 60 61 61 62 62 63 64 66 68 69 69 68 67 66 66 65 64 62 61 57 56 56 58 59 62 64 63 65 68
59 58 58 57 57 57 57 58 58 58 57 58 59 59 59 59 59 59 58 57 57 57 56 56 56 56 56 56 56 56 57 56 57 58 59 59 58 59 60 60 62 64 68 68 69 69 68 67 65 64 63 64 63 59 58 56 58 61 61 64 65 65 65
58 57 57 57 56 55 55 55 57 56 57 57 58 57 57 57 57 56 56 55 55 55 55 54 54 54 55 54 54 54 55 54 54 54 56 57 57 57 58 58 60 61 64 66 67 68 69 68 65 64 64 64 63 62 60 59 57 61 62 61 63 65 65
58 57 56 56 55 55 55 55 55 55 56 57 57 56 56 55 55 55 55 54 54 54 55 54 54 54 54 54 53 53 53 53 53 53 54 55 56 56 56 56 57 58 60 62 65 67 67 68 68 66 66 64 63 63 61 59 58 59 62 61 63 64 66
56 56 56 55 55 55 55 55 55 55 56 56 57 56 55 55 55 54 54 54 54 54 56 54 54 54 53 52 52 52 52 52 52 52 53 53 55 55 56 56 57 59 60 60 61 64 66 67 68 68 66 64 63 64 62 60 59 59 61 62 63 63 64
56 56 55 55 55 55 55 54 55 55 54 56 57 55 55 55 54 54 54 54 55 56 56 55 54 53 51 50 51 51 50 51 51 52 52 52 54 54 54 55 56 57 59 59 60 60 62 64 66 66 65 64 63 64 65 61 59 59 59 61 60 63 64
56 55 54 54 54 54 54 55 55 54 54 55 57 55 54 54 54 54 54 54 55 55 55 55 54 52 51 50 50 50 50 51 51 51 51 52 53 54 54 54 55 56 57 57 58 59 61 62 63 64 65 66 64 64 64 63 61 59 59 59 61 61 62
55 54 54 54 53 54 54 54 55 54 54 54 55 55 55 55 55 54 54 55 55 56 55 55 55 54 51 50 49 49 50 51 52 53 53 53 53 54 54 54 55 55 56 56 57 58 60 60 59 60 61 63 64 64 64 64 63 60 60 59 60 60 61
54 54 53 53 53 54 54 54 54 54 54 53 54 55 56 56 56 55 53 55 55 54 54 54 53 53 52 51 50 50 51 52 52 53 54 54 54 54 54 54 54 55 54 53 55 55 56 55 56 57 59 61 60 62 64 64 63 62 60 59 59 60 61
54 53 53 53 53 53 54 54 54 54 54 53 54 54 55 55 55 56 56 56 55 54 54 53 52 52 51 51 51 51 52 52 53 54 54 54 55 54 53 54 54 53 52 52 52 53 53 52 53 54 54 56 59 61 62 63 63 62 61 61 60 59 60
54 53 53 53 53 54 53 53 54 53 54 53 53 53 54 55 55 55 55 54 54 53 53 52 50 50 51 52 52 52 52 53 54 54 55 55 55 54 54 53 53 53 52 52 51 51 50 50 50 50 51 53 56 57 59 61 63 62 61 60 60 60 60
54 54 54 54 53 53 53 53 53 53 53 52 52 52 54 54 54 55 54 54 54 53 52 51 49 48 49 51 51 52 52 53 53 53 54 55 55 54 53 53 53 53 53 53 51 50 49 48 49 48 50 52 52 52 54 58 60 61 61 61 60 59 59
54 54 54 53 53 52 52 52 53 53 53 52 52 52 53 53 53 53 54 53 53 52 51 49 47 46 46 49 51 52 52 53 53 53 53 54 54 54 54 53 53 53 53 52 49 48 48 47 47 46 47 48 48 48 50 55 58 60 61 61 60 60 59
54 53 53 52 52 52 52 52 52 52 52 52 52 52 52 52 53 52 52 53 53 51 50 49 45 42 43 46 49 51 52 53 53 52 52 51 52 53 52 52 52 52 50 50 48 46 45 45 46 47 46 46 46 46 47 50 54 58 59 59 59 59 58
53 52 52 52 52 52 52 52 51 51 51 51 50 51 51 52 51 51 51 52 51 51 49 46 41 40 40 41 47 50 51 51 52 52 51 50 49 50 50 51 52 52 51 50 50 46 45 44 43 43 44 44 45 45 45 46 52 58 59 59 60 60 59
52 52 52 52 52 52 52 51 51 51 50 50 50 51 50 50 50 51 51 52 51 50 49 43 40 40 40 40 42 49 52 50 50 50 50 49 49 49 49 49 50 50 51 50 50 50 48 45 43 43 43 43 42 43 43 45 48 54 58 59 60 60 60
52 51 51 51 51 51 51 50 50 50 49 50 50 50 50 49 49 50 51 51 50 51 49 42 40 40 40 39 39 45 53 51 50 50 50 49 49 49 48 48 48 49 49 49 49 48 47 47 45 44 45 46 47 45 43 41 42 48 56 58 59 60 61
51 51 51 51 51 51 50 49 49 50 50 50 50 49 49 49 49 50 51 51 51 51 49 42 40 40 40 39 39 44 53 50 50 51 50 49 49 48 47 46 46 47 48 47 47 46 45 46 47 49 52 55 56 53 47 46 44 43 46 54 58 59 63
50 50 51 51 50 50 49 49 49 50 50 49 49 49 49 49 49 50 50 51 51 50 48 40 40 39 39 39 39 45 52 51 50 50 50 49 49 48 48 47 46 46 46 45 46 43 43 44 46 49 52 54 54 55 55 57 60 60 56 54 55 57 60
50 51 50 50 50 49 49 49 49 50 50 50 50 50 50 50 49 50 50 50 50 50 49 40 39 39 39 39 41 52 52 50 49 49 49 49 50 49 48 47 46 45 45 45 44 40 41 43 47 49 50 53 54 56 57 53 42 44 50 53 55 55 55
50 50 50 49 49 48 48 48 49 50 50 50 49 49 49 49 50 50 50 50 49 49 50 44 39 39 39 38 45 52 51 50 49 48 48 49 49 49 48 47 46 44 43 44 41 38 39 41 46 48 49 51 52 51 50 52 48 42 41 41 40 40 40
50 49 49 49 48 48 49 49 49 49 49 49 49 49 50 50 50 50 49 48 48 49 49 46 40 39 39 39 43 50 51 49 48 47 48 49 49 49 48 46 46 44 42 43 39 39 39 42 45 46 46 48 48 46 47 49 51 51 45 44 43 42 42
50 49 49 48 48 48 48 48 49 50 50 50 49 50 51 50 50 50 50 49 46 48 49 47 41 39 39 39 43 50 50 48 47 46 47 47 48 48 48 47 45 43 42 41 38 39 39 41 44 45 45 45 44 44 45 47 46 48 49 49 49 50 50
50 50 49 48 49 48 49 49 49 49 50 51 50 50 50 50 49 49 50 50 49 49 48 49 46 39 40 40 39 48 50 47 45 46 47 47 46 47 48 48 46 40 38 38 38 38 39 39 42 44 44 42 41 41 45 46 46 47 47 47 48 49 48
49 49 50 49 49 49 49 49 49 49 49 49 49 49 48 49 49 49 50 50 50 50 48 48 47 40 40 40 39 42 49 45 46 48 48 47 47 47 47 47 47 42 38 38 38 38 39 39 40 43 42 41 41 41 44 46 46 45 46 46 46 46 47
50 49 50 50 49 49 49 49 49 49 49 49 48 48 48 49 49 49 50 50 50 50 49 45 47 43 39 39 39 39 45 46 44 49 47 48 48 48 48 47 46 42 38 38 38 38 39 39 39 42 40 39 39 39 43 45 45 45 45 45 44 44 45
50 50 49 50 50 49 49 49 49 49 48 49 48 47 47 48 48 49 49 50 51 51 50 50 43 45 41 39 39 39 38 42 39 49 48 48 48 48 49 48 47 41 39 39 39 38 39 38 40 40 38 38 39 39 42 43 43 43 43 43 43 42 43
50 50 50 51 50 50 49 49 50 49 49 49 49 48 48 48 48 48 48 48 49 51 51 51 46 41 44 40 40 39 39 38 39 45 49 48 49 48 48 47 45 39 39 39 39 39 39 39 39 38 38 38 39 40 41 41 41 41 41 40 40 41 42

ECMWFFLT1_sfc_temp_108.txt.gz
Temp
72 71 71 71 73 74 73 72 73 73 73 73 72 73 73 73 73 72 73 72 73 73 73 73 72 73 74 75 74 73 72 71 71 70 70 72 70 71 75 73 73 73 73 72 70 67 65 63 68 73 73 71 73 73 73 72 72 72 71 70 71 71 74
72 72 73 74 73 73 71 71 71 72 71 71 72 71 71 72 72 71 72 71 71 71 73 73 74 74 72 72 72 72 71 71 71 71 69 70 71 71 72 72 73 72 73 73 73 71 66 63 66 69 70 68 68 73 73 73 72 71 70 68 68 68 67
72 73 73 72 71 72 70 70 70 70 70 70 70 71 70 71 71 71 71 70 70 71 71 72 72 72 71 71 71 70 71 70 71 71 69 70 72 73 72 72 70 71 72 73 72 70 68 67 63 66 70 69 68 72 73 71 70 70 70 68 68 68 68
71 71 70 69 70 70 69 69 69 68 68 69 70 69 69 70 69 70 70 70 69 70 71 72 71 71 71 71 71 71 71 70 71 71 71 71 71 71 72 72 71 71 69 68 70 71 69 66 65 66 69 73 72 71 74 74 74 74 72 70 70 69 68
69 69 68 67 67 67 67 66 67 67 67 68 68 68 66 68 68 67 68 69 69 69 69 70 70 71 72 72 71 71 70 70 70 69 70 70 71 71 71 72 72 72 72 72 72 71 68 67 67 66 68 71 71 74 78 76 77 76 74 73 71 70 69
68 67 67 66 67 66 66 65 65 65 66 66 65 65 65 66 67 65 65 66 67 67 67 68 69 70 69 69 70 70 69 69 69 68 69 69 69 69 70 72 74 74 73 74 73 71 71 71 68 64 66 66 65 68 75 76 74 77 77 76 76 73 73
67 67 66 65 65 66 66 65 65 66 66 65 65 64 65 67 67 66 65 65 67 67 67 67 67 69 68 68 69 68 67 69 69 67 68 69 68 69 69 69 70 72 73 74 73 71 69 69 68 68 66 67 67 66 70 71 75 73 73 75 75 74 71
67 66 65 65 64 64 66 65 65 66 66 66 65 65 66 66 66 65 65 65 66 66 66 66 66 68 66 67 68 66 67 67 66 66 67 67 67 68 67 67 67 68 70 72 72 71 72 70 68 67 64 61 63 67 67 70 71 69 70 72 72 71 72
66 65 64 65 65 64 64 65 64 64 65 65 65 64 64 65 64 64 65 64 64 64 65 65 64 65 63 64 64 63 63 64 62 63 65 66 66 65 65 66 66 67 69 70 71 72 72 71 70 71 68 64 59 59 66 65 67 68 73 70 70 69 68
63 63 62 62 63 64 64 64 63 63 63 63 62 63 64 64 63 63 64 64 64 64 63 63 63 64 63 64 62 61 60 61 60 61 62 62 63 63 64 64 65 67 69 70 70 70 70 70 71 70 68 66 64 59 59 60 63 62 71 73 68 67 68
63 63 63 63 64 64 64 64 64 62 62 62 62 62 63 63 63 63 63 63 63 63 63 64 64 64 64 63 61 61 61 60 60 61 62 61 61 62 62 63 64 66 68 68 69 68 68 69 70 70 68 66 66 63 61 57 59 68 70 71 70 68 66
64 64 64 65 64 63 62 64 64 64 64 64 64 64 64 64 64 63 63 63 63 63 63 63 63 63 64 62 61 61 61 60 60 60 61 61 61 61 62 62 63 63 64 64 65 67 68 68 69 69 68 67 66 66 64 61 57 64 70 66 68 70 67
67 65 63 63 62 62 62 62 63 62 63 64 64 63 63 62 62 63 63 63 63 63 63 63 63 63 63 61 60 60 60 60 60 61 61 62 62 61 61 61 62 62 64 64 63 64 65 67 67 67 68 67 67 65 64 61 60 63 71 68 67 68 69
63 63 63 63 62 62 61 61 62 63 64 62 63 62 62 62 63 63 64 63 64 63 63 62 63 62 62 61 60 59 59 60 60 60 61 61 62 61 61 62 63 64 65 63 63 63 64 65 65 65 65 64 63 64 62 61 62 63 67 71 70 69 69
64 63 62 62 62 62 62 61 61 63 61 62 62 63 63 62 63 63 63 64 63 64 63 63 62 62 61 59 58 58 58 59 60 60 60 61 62 62 62 62 63 63 63 62 61 62 63 63 63 62 62 62 61 62 64 61 60 60 61 66 67 70 68
63 61 61 61 61 62 61 61 63 62 62 62 63 63 62 63 63 64 64 62 63 62 62 62 61 61 61 60 59 59 58 58 58 59 60 61 62 62 62 62 62 62 61 60 60 61 61 60 60 60 61 62 61 61 62 63 61 59 60 62 66 67 67
62 61 60 61 60 61 62 62 62 62 62 63 62 62 63 64 63 63 62 62 62 62 61 60 60 61 61 60 60 60 60 59 59 60 60 61 61 61 61 60 60 60 60 58 59 58 59 59 58 58 58 59 60 60 61 61 61 60 60 59 65 67 69
60 60 60 60 60 61 61 62 62 63 62 61 62 62 62 63 62 62 60 61 61 61 60 60 59 59 60 60 61 60 60 60 61 61 61 61 61 61 60 59 60 59 58 57 56 56 56 54 55 55 55 57 58 59 60 60 60 62 61 60 62 66 69
60 60 60 60 60 61 61 61 62 61 62 62 62 62 61 62 62 62 62 62 61 61 60 59 58 58 58 59 61 60 60 61 61 61 61 62 62 61 60 60 59 58 57 55 54 54 54 53 53 52 53 54 55 56 57 58 59 61 62 62 62 62 67
60 60 60 60 61 61 61 61 62 61 62 61 62 61 62 62 61 62 61 61 60 59 58 57 55 55 56 58 60 61 60 60 60 61 61 62 62 61 61 60 58 57 55 54 53 52 52 51 51 51 52 52 54 54 54 55 57 57 58 59 62 63 62
60 60 61 61 61 61 61 61 61 61 61 60 61 61 61 61 61 62 61 61 59 59 57 55 53 52 53 56 58 60 60 60 60 60 60 61 60 60 60 59 57 56 55 54 53 52 51 50 50 50 51 52 52 51 51 53 54 55 57 59 60 62 63
61 61 61 61 60 60 60 60 61 61 61 60 60 61 62 61 61 61 61 60 60 58 55 52 50 48 50 53 56 59 59 59 59 59 59 59 59 59 59 58 57 56 55 53 50 49 48 48 49 48 49 50 50 49 50 51 52 53 55 56 57 61 61
61 61 60 60 60 60 60 60 60 60 60 60 60 61 61 60 61 60 59 60 59 56 53 51 45 42 43 48 54 58 58 59 59 58 57 56 56 57 57 56 55 53 51 51 49 47 46 45 46 48 49 49 48 48 49 49 49 51 52 53 56 59 60
61 60 60 60 60 60 60 60 59 59 59 59 59 59 59 59 59 59 59 58 57 56 53 48 41 40 41 40 48 57 59 58 59 58 56 55 54 54 55 55 55 54 53 51 52 47 45 44 44 44 44 45 47 48 48 47 48 50 50 51 55 58 59
61 60 60 60 60 60 60 60 59 59 58 58 58 59 58 58 58 58 58 59 57 55 53 43 40 40 41 39 42 52 59 58 57 57 55 55 55 54 52 52 53 53 53 52 51 51 48 45 44 44 44 45 45 45 45 48 50 50 50 50 52 56 59
60 60 60 60 60 60 60 59 59 58 57 58 58 57 57 57 57 58 58 58 56 55 52 42 40 39 40 39 40 46 61 58 57 56 55 55 55 53 52 51 51 52 52 50 51 50 49 50 47 46 48 48 49 49 47 43 43 47 51 50 50 50 55
59 59 59 59 59 59 59 58 58 58 58 58 57 57 56 56 57 57 57 58 57 55 51 43 40 39 40 38 40 43 61 58 57 57 55 55 54 53 52 50 49 50 51 50 49 47 47 48 50 53 54 54 55 54 50 48 48 46 47 49 49 49 54
59 59 59 59 59 58 57 57 58 59 58 57 57 57 56 56 56 56 57 57 57 54 49 40 40 39 39 39 38 45 60 59 58 57 56 55 55 53 52 50 50 50 49 49 48 43 44 46 49 51 51 51 53 54 54 55 54 52 50 50 50 50 53
58 58 58 58 58 57 57 57 57 58 58 58 58 58 57 57 56 56 56 57 56 54 51 40 39 40 39 40 39 58 59 58 57 56 55 55 55 54 53 51 49 49 48 48 44 39 41 45 50 48 48 49 51 52 52 52 48 46 48 48 49 48 47
56 57 57 57 57 57 56 56 57 59 58 57 57 57 56 57 57 56 56 56 56 55 53 44 39 40 40 39 45 59 58 59 59 56 55 56 56 55 53 51 50 48 48 48 42 38 39 41 49 46 46 47 48 49 48 51 48 46 45 44 44 43 42
56 57 57 57 56 56 57 57 57 58 57 57 56 57 58 57 57 57 55 54 55 55 53 46 39 40 40 39 44 57 57 58 57 56 56 57 56 55 54 48 49 49 48 47 40 39 38 43 47 46 45 45 45 45 45 47 51 52 47 46 45 45 44
57 57 57 56 56 56 56 56 58 59 58 58 57 59 59 58 57 57 57 55 51 54 54 50 41 40 39 40 45 56 57 58 56 56 56 57 57 55 55 53 47 45 45 43 38 39 38 42 46 45 44 44 42 41 42 45 46 46 47 48 48 48 48
57 57 57 56 57 57 57 57 57 57 58 60 59 59 58 57 56 56 57 56 55 55 54 54 48 39 40 41 39 51 57 55 55 56 57 57 57 56 56 56 52 43 39 39 39 38 39 38 44 46 45 43 39 38 41 44 45 44 45 45 45 47 47
56 57 57 56 57 57 57 57 57 57 57 57 57 56 56 57 56 56 57 57 56 55 53 54 51 40 41 40 40 43 55 53 52 58 57 56 57 55 55 55 55 46 40 39 39 39 39 39 40 46 44 41 40 39 42 43 43 43 44 44 45 45 46
57 56 57 57 56 56 57 58 58 58 58 56 55 55 56 57 57 56 57 57 57 57 53 48 54 46 41 41 40 40 49 53 48 57 56 57 55 55 54 54 54 47 40 39 39 40 40 39 40 46 42 38 39 38 42 43 42 42 42 43 43 44 44
56 57 57 57 57 56 57 57 57 57 57 56 56 55 55 56 56 56 57 57 58 57 58 55 45 51 44 41 41 41 39 46 42 54 55 54 54 54 55 54 53 45 40 40 40 40 41 40 44 44 38 39 39 39 42 44 41 40 40 40 41 42 42
58 58 58 58 57 57 57 57 58 58 58 58 57 57 57 57 57 56 56 56 57 58 58 58 49 44 49 42 41 41 40 40 41 50 55 55 55 55 54 54 51 41 40 41 41 41 42 42 44 39 39 39 40 41 43 43 41 40 38 38 38 40 41

ECMWFFLT1_sfc_temp_111.txt.gz
Temp
73 72 73 74 75 74 73 73 73 72 74 75 73 74 75 75 74 73 73 73 73 73 74 74 74 74 73 75 75 75 74 74 73 71 71 73 70 72 75 73 73 74 73 70 70 65 64 64 69 76 77 75 75 74 74 73 73 71 70 68 67 68 69
74 74 75 75 74 74 72 73 72 73 72 72 73 73 72 72 73 73 72 71 71 71 73 72 73 74 72 71 71 72 72 72 73 72 71 71 71 71 72 72 73 71 73 74 73 71 67 66 65 68 70 74 73 73 74 75 74 75 76 74 70 71 72
74 74 73 72 72 72 71 71 71 71 71 71 71 71 70 72 71 72 71 71 70 71 71 72 72 72 72 72 71 71 71 70 72 72 70 71 72 72 72 72 71 71 72 71 71 71 71 70 64 66 71 70 68 72 74 72 73 73 73 75 75 75 74
72 72 71 71 71 70 70 69 69 69 69 69 70 69 70 69 69 70 69 70 71 70 70 70 69 70 70 70 71 72 71 70 69 69 69 70 70 70 71 72 70 70 68 68 69 71 69 67 68 69 71 74 74 72 76 78 77 78 77 77 75 75 75
71 70 69 68 69 69 68 68 68 69 69 69 69 69 68 68 68 69 69 69 69 69 69 69 69 70 71 70 70 70 70 69 69 69 68 67 67 68 68 70 70 71 71 70 70 70 69 69 68 68 69 73 74 76 78 77 80 79 77 75 75 78 77
69 69 69 68 69 68 68 67 68 68 69 68 67 67 67 67 67 67 67 67 68 68 69 69 69 71 69 69 70 70 69 69 68 66 66 66 66 66 67 69 70 70 70 71 71 70 71 70 69 66 70 72 69 71 76 77 76 81 83 81 79 76 77
69 68 68 68 69 69 69 68 68 67 67 66 67 65 66 67 67 67 67 67 68 68 68 67 68 68 68 69 68 67 66 66 65 64 66 66 66 66 67 66 67 67 68 70 70 70 69 69 67 66 65 68 69 69 74 76 79 77 79 83 82 79 74
69 68 67 67 67 67 68 67 67 67 67 66 66 66 67 67 67 67 67 67 67 66 67 66 67 67 67 68 68 66 66 65 64 64 64 63 63 63 64 64 64 66 68 70 71 70 71 69 67 66 65 62 64 67 68 73 75 76 76 81 84 82 82
68 69 68 67 67 67 67 67 66 66 66 66 66 67 67 67 67 67 68 67 67 67 67 67 67 67 66 66 66 66 65 65 64 64 64 64 63 63 63 63 64 65 67 68 68 68 68 68 67 67 66 64 61 59 65 66 69 72 79 76 80 81 80
66 66 65 65 66 66 66 66 66 66 65 65 66 67 67 67 66 66 66 66 66 66 66 67 67 66 66 66 65 65 64 64 64 65 65 64 64 64 64 64 64 64 66 66 66 66 66 66 67 68 68 66 64 58 56 59 64 66 72 78 74 77 81
67 67 67 66 67 67 67 67 67 65 66 66 67 66 67 67 66 66 66 66 66 66 66 66 66 66 66 65 65 65 65 64 64 65 65 65 64 64 64 64 65 65 66 66 66 66 66 65 66 66 66 66 64 59 58 56 60 67 68 72 75 73 77
68 68 67 67 66 66 66 67 67 67 67 67 67 66 66 66 66 66 66 66 66 66 66 66 66 66 65 64 64 64 63 64 63 63 64 64 65 65 64 64 65 65 65 64 65 65 65 66 65 65 64 64 63 62 60 58 55 63 69 67 70 74 74
69 68 67 67 67 66 66 66 66 66 65 66 66 66 67 66 66 67 67 66 66 66 66 65 65 65 65 63 63 62 63 64 63 63 64 65 66 65 64 64 64 64 64 64 63 63 63 64 63 62 62 62 63 64 63 61 57 58 66 66 68 71 73
67 68 67 66 65 65 66 66 66 66 66 65 66 66 66 66 67 67 67 66 66 65 65 64 64 65 64 63 64 63 63 63 63 63 64 64 65 64 64 64 64 64 63 61 60 61 61 61 61 60 61 61 60 61 60 58 56 58 63 68 67 69 72
66 67 66 66 65 65 65 65 65 66 65 66 67 67 67 67 67 66 66 66 66 66 65 65 64 64 63 63 63 64 63 63 64 64 63 64 64 64 63 62 62 62 61 60 59 59 59 59 58 58 58 58 58 58 60 57 57 56 56 63 65 69 69
66 66 64 65 65 65 65 66 67 66 66 65 66 67 66 66 66 66 66 65 65 64 64 64 63 63 62 63 63 63 63 64 63 63 63 64 64 64 62 61 61 60 59 58 57 57 57 56 56 56 55 57 56 57 58 58 56 55 55 57 62 64 67
65 65 64 64 64 65 65 65 66 66 66 66 66 65 66 67 66 65 64 65 64 64 63 62 62 62 62 62 63 63 64 64 64 64 63 63 63 62 62 60 60 59 58 56 56 55 56 55 54 54 54 55 56 56 57 57 57 55 55 54 59 62 65
64 63 63 64 64 64 65 65 66 66 65 65 66 66 66 66 65 64 63 63 63 62 61 60 59 59 60 62 63 63 63 63 63 63 63 62 62 61 61 60 59 58 56 54 54 53 53 52 53 53 53 54 54 55 55 55 55 56 55 54 57 62 64
63 63 63 63 64 64 65 65 65 65 67 65 65 65 64 65 65 64 64 63 62 62 60 58 57 57 59 61 63 63 63 63 62 63 63 62 61 61 59 59 58 57 55 53 52 52 52 52 53 52 52 53 53 53 52 53 54 54 54 54 55 57 62
63 63 63 63 64 65 65 64 65 65 66 65 65 64 65 65 64 64 63 62 61 59 58 56 55 55 57 60 63 63 62 62 62 61 62 62 61 61 60 59 58 57 55 54 52 51 51 51 51 50 51 51 51 50 50 51 52 52 52 52 54 57 59
63 64 64 64 64 64 64 64 64 64 65 64 64 65 65 64 64 64 63 62 60 58 57 55 54 53 55 58 60 63 62 61 61 61 61 61 62 61 60 59 58 57 56 55 53 52 51 50 50 49 50 50 49 49 49 50 51 51 51 52 52 53 56
64 64 64 64 63 63 63 64 64 64 64 63 63 65 65 65 64 63 63 61 60 57 55 52 50 49 51 54 55 60 62 62 60 60 60 61 60 60 59 58 57 56 55 54 50 50 49 48 49 47 48 49 49 49 49 49 50 51 51 51 51 54 54
64 64 64 63 63 63 63 63 63 63 63 63 64 64 64 64 64 62 61 61 59 56 53 51 45 42 43 48 53 57 62 61 61 60 59 58 58 58 58 57 56 55 52 51 50 48 46 46 46 48 48 49 49 49 49 49 49 50 50 50 50 51 50
64 63 63 63 63 63 63 63 63 62 62 62 62 63 63 62 62 62 61 59 57 56 53 48 40 41 40 41 48 54 60 60 60 59 58 57 57 56 56 57 56 56 54 52 52 47 46 45 44 44 45 46 47 49 49 49 48 49 48 48 49 49 49
64 63 63 64 64 64 63 63 62 62 61 61 61 62 61 61 61 61 60 59 57 55 53 43 40 41 40 40 42 50 60 60 60 59 58 57 57 56 55 55 55 55 54 53 52 51 48 46 44 44 44 45 45 45 45 48 47 47 47 46 46 48 48
64 63 63 63 63 63 63 62 62 61 60 61 61 60 60 60 60 61 60 58 56 55 53 42 40 40 41 40 41 45 62 60 60 59 58 58 57 55 55 54 54 54 53 53 52 49 48 49 46 46 47 49 50 49 44 43 44 48 49 47 46 46 47
63 63 63 62 62 62 61 60 60 61 61 61 60 59 59 59 60 60 60 58 57 55 51 43 40 40 41 39 41 42 62 61 60 60 59 58 57 56 55 54 53 52 52 52 51 47 47 47 48 51 53 53 54 53 49 47 46 45 47 48 46 45 48
62 62 63 62 61 61 60 59 59 60 60 60 60 60 59 58 59 59 59 59 57 54 50 40 40 40 40 40 40 45 62 61 61 60 60 60 59 57 56 55 54 52 51 51 49 45 45 46 48 51 51 50 52 54 54 53 51 49 48 48 47 47 48
62 62 61 61 60 59 59 58 58 59 60 60 61 60 60 59 58 59 59 58 56 54 52 41 40 40 40 40 40 59 62 62 61 61 60 61 60 58 57 55 54 53 52 51 46 40 42 46 50 49 49 49 50 51 52 50 46 45 47 46 47 47 47
61 61 60 59 59 59 58 58 59 60 60 60 59 59 59 58 59 58 58 58 56 55 53 45 40 41 41 40 45 60 62 62 61 61 61 60 61 58 56 56 54 53 52 52 44 39 40 43 50 49 48 48 48 48 48 50 47 45 43 43 42 43 42
59 59 59 59 59 59 59 59 60 61 60 60 59 60 60 59 58 58 57 56 57 56 54 47 41 41 41 41 44 57 62 61 60 60 60 61 61 60 55 49 53 54 52 51 41 39 40 45 50 49 47 47 46 45 46 47 49 49 45 44 44 43 43
58 58 58 58 59 58 59 59 60 61 61 61 60 61 61 60 59 58 58 56 53 55 55 51 43 41 41 42 46 56 60 59 59 59 59 59 60 59 59 55 50 50 49 46 39 40 39 44 49 49 47 46 44 44 44 45 46 45 45 45 45 46 46
59 59 59 59 59 59 60 60 60 61 61 63 62 61 61 60 59 58 58 58 56 56 56 55 50 41 42 42 42 52 59 57 55 57 59 58 58 58 58 58 55 47 42 41 40 39 39 40 48 51 49 46 43 41 44 46 46 44 42 42 43 44 45
59 60 60 59 59 60 60 60 60 60 60 61 60 60 59 59 59 58 59 59 57 56 56 56 52 41 42 42 41 45 57 55 54 56 59 58 58 57 57 57 57 49 43 42 41 40 40 40 42 52 50 47 44 42 43 46 45 44 43 43 42 43 43
60 59 60 60 59 59 60 61 61 61 61 60 59 59 60 60 59 59 60 59 59 57 54 51 56 46 41 41 41 41 52 54 52 55 57 57 57 56 56 56 56 50 43 42 41 41 39 40 41 54 49 41 40 40 45 47 46 44 43 42 42 42 42
60 60 60 60 59 59 60 60 60 60 60 59 59 58 59 59 59 59 60 60 60 60 59 55 47 53 45 41 41 42 40 48 44 53 56 56 56 56 57 56 56 48 42 41 42 41 41 39 47 51 40 41 41 40 45 48 46 45 43 42 41 41 41
61 61 61 61 60 60 60 61 61 62 62 61 61 60 61 60 60 59 59 59 60 61 60 60 49 45 51 44 42 43 42 41 41 52 55 57 57 58 57 56 53 43 41 42 43 42 43 44 51 42 41 42 41 45 55 54 49 46 44 42 42 41 41

ECMWFFLT1_sfc_temp_114.txt.gz
Temp
64 68 70 70 71 71 70 70 70 70 71 71 70 71 71 71 70 69 69 68 68 69 70 68 67 68 68 69 69 69 68 68 67 65 65 66 64 65 68 67 67 69 69 67 66 62 59 57 62 68 70 70 69 69 69 69 69 69 68 68 68 67 67
69 71 71 71 70 70 69 69 69 69 69 69 70 69 69 69 69 68 68 68 67 67 68 67 67 68 67 66 66 66 66 66 66 66 64 64 65 64 65 65 66 66 67 67 68 66 61 59 60 63 65 69 69 69 69 70 70 70 69 69 68 68 67
71 70 70 69 69 69 68 68 68 68 68 67 68 68 68 69 68 68 68 67 66 67 67 66 66 66 66 66 66 65 66 65 65 65 64 64 64 65 65 64 63 64 64 64 64 63 63 63 59 60 64 64 64 67 70 69 70 71 71 70 68 67 67
69 69 68 68 68 67 66 66 66 66 67 66 67 66 67 67 67 67 66 67 66 66 66 66 65 65 65 65 66 66 65 64 63 62 63 64 64 63 64 64 63 63 61 60 61 62 62 60 60 61 63 66 65 64 69 72 71 72 72 71 69 68 67
68 67 67 66 67 66 66 65 66 67 66 66 66 65 64 66 66 65 66 65 65 64 64 64 64 65 64 65 65 64 63 63 62 61 61 61 61 62 62 63 62 62 62 62 63 63 62 62 61 61 62 64 64 65 69 70 74 74 74 74 72 70 70
67 68 67 66 67 66 66 66 66 65 65 64 64 63 64 65 65 64 64 63 63 63 63 64 64 64 63 64 64 63 63 61 61 61 61 61 61 60 60 62 62 62 62 63 63 62 62 62 61 58 61 63 59 61 65 68 68 73 76 76 73 73 72
66 66 66 66 66 66 66 65 65 64 63 63 63 63 64 65 64 64 64 63 64 64 64 64 64 64 64 64 63 62 62 61 61 62 62 62 62 62 62 61 61 62 62 63 62 62 61 60 58 57 57 59 60 60 64 66 69 68 71 75 77 76 71
66 66 65 65 65 65 65 65 65 64 63 63 63 64 65 64 64 64 64 63 63 63 64 63 64 63 63 63 63 62 61 61 61 62 61 61 61 62 61 61 61 62 62 63 63 62 63 61 60 59 57 54 55 58 59 63 64 65 66 71 75 75 76
66 66 65 64 65 65 65 65 64 64 64 64 64 64 63 64 63 64 64 63 63 63 63 63 63 63 62 61 61 61 60 62 61 62 61 61 61 61 61 62 62 62 62 62 63 62 62 62 60 60 59 57 52 50 55 56 59 61 67 65 69 72 72
65 64 64 64 64 65 65 64 63 64 64 64 63 64 63 64 63 63 63 63 63 63 63 63 63 62 62 61 60 60 59 60 61 60 60 61 62 61 61 61 61 62 61 61 61 61 60 60 60 60 59 57 55 51 49 50 54 56 61 66 63 68 70
65 65 65 64 64 64 64 64 64 63 63 64 64 64 64 63 63 64 63 63 63 63 62 62 63 62 61 60 60 60 60 61 61 61 61 62 62 61 61 61 61 60 60 60 59 60 60 59 58 58 58 58 57 52 51 48 50 57 58 62 64 63 67
66 66 66 66 65 64 64 63 63 63 63 63 63 63 63 63 63 63 62 62 62 62 62 61 62 61 61 59 60 59 60 60 60 60 61 61 61 60 60 59 60 59 59 58 58 59 59 58 57 56 56 56 55 55 53 51 47 54 59 56 60 63 63
66 66 65 64 63 64 64 64 63 62 62 63 63 64 64 63 63 62 62 62 61 61 61 60 61 61 60 60 60 59 60 60 61 60 60 61 61 60 59 59 59 58 58 57 57 56 56 56 55 54 54 54 54 54 54 51 49 48 55 56 58 60 62
64 65 64 64 63 63 63 63 63 63 64 62 63 63 63 63 63 62 62 62 61 60 60 59 59 60 60 60 60 60 60 61 60 60 60 60 61 60 59 59 58 58 57 55 55 55 55 54 54 53 54 53 52 53 52 51 48 48 52 57 56 57 60
64 64 63 63 63 63 63 62 63 63 62 63 64 63 63 63 62 62 61 61 60 60 59 59 59 59 59 59 59 60 59 59 59 59 58 58 58 58 57 57 56 56 56 55 54 54 53 53 53 52 52 52 52 51 53 50 49 48 47 52 53 56 57
63 63 62 62 62 63 63 63 64 62 62 62 63 63 62 62 62 62 61 60 59 58 57 57 57 58 58 59 59 59 59 59 58 57 57 56 57 57 56 55 55 55 55 53 53 53 53 52 52 51 51 51 51 51 52 52 49 46 46 48 52 53 54
62 62 62 62 62 62 63 63 64 63 63 62 62 62 62 62 61 60 59 59 58 56 55 55 56 57 58 59 59 59 59 58 58 58 57 57 56 56 55 54 54 55 54 53 52 52 52 51 50 50 50 50 50 50 50 50 50 48 47 46 50 51 53
61 61 61 61 62 62 62 63 63 63 62 62 62 62 61 62 60 59 57 57 56 55 54 54 54 55 56 58 59 58 58 58 57 57 57 57 57 56 55 54 54 54 53 51 51 50 51 50 50 49 48 49 49 49 50 50 49 50 48 47 49 52 54
61 61 61 61 61 62 62 62 62 62 63 62 61 61 60 60 60 59 57 56 55 54 53 52 52 52 54 56 57 58 58 58 57 57 57 56 56 56 54 54 54 53 53 51 50 50 50 49 49 48 47 48 49 49 49 49 50 50 49 49 49 50 53
61 61 61 61 61 62 62 62 63 62 63 62 61 60 61 60 59 58 57 55 54 53 52 51 50 50 52 53 54 56 57 57 57 56 57 56 56 55 54 54 54 54 53 51 50 49 49 48 47 46 47 47 48 48 47 48 50 49 49 49 50 51 52
61 61 61 61 61 61 61 61 61 62 62 61 61 61 60 60 59 58 57 55 54 53 51 50 48 47 50 51 52 54 57 56 56 56 55 56 55 54 54 54 54 53 52 51 50 49 48 45 45 45 46 47 47 46 46 47 49 49 49 48 48 49 50
61 61 62 61 61 60 60 60 61 61 61 60 61 61 61 60 58 57 56 55 53 52 50 48 46 44 45 47 50 52 57 57 55 55 55 55 55 54 54 54 54 53 53 53 50 49 48 47 46 44 45 46 46 46 46 46 48 48 48 46 46 48 47
61 61 60 60 60 60 60 60 60 60 60 60 60 60 60 59 58 56 55 54 52 50 49 47 44 42 43 44 48 51 55 56 56 55 54 53 53 54 54 53 54 55 52 51 50 47 45 45 46 46 46 46 46 45 45 46 47 46 45 43 43 44 43
61 60 60 60 60 60 60 60 59 59 59 59 59 59 59 58 57 56 54 53 51 50 48 45 42 40 41 42 45 48 53 55 55 55 54 53 52 52 53 53 52 53 53 51 49 46 45 44 44 44 44 46 47 47 46 45 45 45 43 42 43 43 43
61 60 61 60 60 60 60 59 59 58 58 58 58 58 57 57 57 55 54 52 50 49 47 43 40 41 41 41 43 45 53 55 55 54 54 53 53 52 51 51 52 52 52 51 50 47 47 46 45 45 46 46 45 45 45 44 44 43 43 41 41 42 42
61 60 60 60 60 60 59 59 58 57 57 57 57 57 57 57 56 55 54 52 50 49 47 42 41 41 41 41 41 44 55 55 55 54 54 54 52 51 51 50 50 51 51 53 51 47 46 46 46 47 48 48 48 47 43 43 44 46 45 43 41 41 42
60 60 60 60 60 59 58 57 57 57 57 57 56 56 56 56 55 55 54 52 50 49 46 42 41 41 41 41 41 43 56 56 55 55 55 54 52 51 51 50 49 49 50 50 49 46 45 45 46 50 50 50 50 50 47 46 45 44 45 45 43 40 43
59 59 60 59 58 58 58 57 57 57 56 56 55 55 55 55 55 54 53 53 51 49 46 41 41 41 41 41 42 46 58 57 56 55 55 54 52 51 51 51 50 49 49 50 49 43 43 44 46 49 48 49 49 50 50 49 48 47 46 45 44 44 44
59 59 59 58 58 57 57 57 56 56 56 55 56 56 55 55 55 54 54 52 50 49 48 42 41 42 42 41 44 53 56 56 55 55 55 54 53 52 51 51 50 49 49 50 48 42 41 42 45 49 47 48 48 49 49 49 45 45 47 46 45 44 44
58 58 58 57 57 56 56 56 56 57 55 55 55 54 54 54 55 54 54 53 50 49 48 44 41 42 42 42 46 52 56 56 55 55 54 54 53 51 51 52 51 50 49 49 46 40 40 41 45 48 48 47 48 48 47 49 47 45 44 44 43 43 42
57 57 57 57 56 56 56 57 57 57 56 55 55 54 54 53 53 54 53 52 51 49 49 46 42 42 42 42 46 51 55 54 53 54 54 54 54 52 51 53 54 51 49 49 43 41 41 42 45 46 48 47 47 46 46 48 49 49 47 45 44 44 43
57 56 55 55 55 55 55 56 57 57 57 57 56 56 55 54 53 53 53 52 53 51 50 48 43 42 42 42 46 51 53 52 51 51 53 53 53 53 53 53 52 50 49 46 42 42 41 43 44 45 46 47 47 46 46 46 47 47 47 46 46 46 45
56 56 56 56 56 56 57 57 56 56 56 57 56 56 56 55 53 52 53 53 53 52 51 50 47 42 42 42 43 50 52 50 49 49 52 53 52 51 51 52 52 47 44 43 42 42 42 41 43 44 46 48 46 45 47 45 47 47 46 45 45 45 45
56 57 57 56 57 57 57 56 57 57 56 56 56 55 55 54 54 53 53 53 52 52 52 51 48 41 43 42 41 44 51 50 49 49 51 52 52 50 51 51 51 49 44 43 42 42 42 42 42 44 47 48 46 44 43 44 47 48 46 45 45 45 44
58 57 58 57 56 56 57 58 57 57 56 56 55 55 55 55 54 54 54 54 52 51 51 50 52 45 43 43 42 41 48 50 47 48 50 51 51 51 50 50 51 49 44 43 41 42 42 42 43 47 48 43 42 41 47 46 48 48 46 45 43 43 44
57 58 57 57 57 56 57 57 57 56 56 55 55 55 55 55 54 54 54 54 54 52 51 51 47 50 45 43 42 41 41 46 42 49 49 50 50 51 51 52 52 49 43 42 41 43 43 43 48 48 42 43 42 43 49 51 49 49 46 45 44 43 42
58 58 57 57 57 56 56 57 57 56 56 56 55 55 55 55 55 54 53 53 54 54 54 52 47 45 48 44 43 41 41 42 42 46 48 50 51 51 51 50 49 43 42 41 43 44 43 46 47 43 43 44 45 48 51 51 50 49 47 45 44 43 43

ECMWFFLT1_sfc_temp_117.txt.gz
Temp
63 64 66 66 67 66 66 65 65 65 66 66 65 64 64 64 63 62 62 62 62 62 63 61 60 60 61 62 62 62 62 61 60 58 57 58 56 57 61 60 61 62 62 62 61 58 57 54 58 63 64 65 66 65 66 66 66 66 66 66 66 66 66
65 66 67 67 65 66 64 64 64 65 65 65 65 64 63 63 63 62 61 61 61 61 62 61 61 61 60 60 60 60 59 58 59 59 57 56 57 56 57 57 58 58 59 59 60 60 56 54 55 56 58 63 63 62 65 66 67 67 67 67 66 67 66
66 66 66 65 64 64 63 63 63 63 63 62 62 64 64 62 61 62 61 60 60 61 61 59 59 59 59 59 59 59 58 57 58 58 57 57 57 57 57 57 55 56 56 56 57 57 57 56 53 54 56 56 56 60 63 64 66 67 68 67 66 66 66
66 65 64 63 63 63 63 63 62 61 61 61 62 61 60 60 60 61 60 60 60 60 59 58 58 58 58 58 59 58 58 56 56 56 57 57 57 57 57 56 55 56 55 55 56 57 57 55 55 55 56 57 56 56 60 64 64 66 68 68 66 66 66
65 64 63 62 63 63 63 62 61 61 59 59 60 59 58 59 59 58 59 58 58 57 58 58 59 59 59 59 58 57 57 56 56 57 55 55 57 57 56 57 56 56 58 58 58 58 56 55 55 54 54 56 56 57 60 62 65 65 67 68 68 68 68
65 65 64 64 64 63 62 62 61 60 59 58 57 58 57 57 58 57 57 56 57 58 58 58 58 59 58 58 58 57 56 56 55 55 55 55 56 55 55 57 58 58 59 60 59 57 56 56 55 52 54 56 52 54 58 59 59 63 65 66 67 67 67
63 64 64 63 63 62 62 61 61 59 58 56 56 56 57 58 57 57 57 57 57 57 58 58 58 58 58 57 57 56 55 56 56 56 55 55 55 55 57 55 57 58 58 59 59 57 55 54 53 51 51 53 54 52 55 56 59 57 60 64 66 67 66
62 62 63 63 62 61 61 61 60 59 58 57 56 56 57 56 56 57 57 56 57 57 57 57 58 57 57 57 56 55 56 56 56 56 56 56 57 56 57 56 56 56 56 56 56 55 56 54 53 52 50 46 48 50 50 53 54 55 56 60 64 64 64
62 62 62 62 62 61 61 61 59 58 57 56 57 56 57 57 56 57 57 57 57 57 57 57 57 56 56 55 54 55 54 58 56 56 55 56 56 56 55 56 55 54 55 55 55 54 55 54 52 51 50 48 44 42 47 48 50 51 57 55 59 61 61
61 61 61 61 61 61 60 59 58 58 58 57 58 57 56 56 57 57 57 56 57 56 56 56 56 55 54 54 54 53 54 54 55 55 55 56 56 55 55 55 54 53 54 55 55 55 54 53 51 50 51 49 48 44 42 43 46 47 52 55 51 55 59
61 61 60 60 60 60 58 58 57 57 56 57 57 59 56 57 57 58 56 55 55 56 55 55 55 54 53 53 53 54 54 54 55 55 56 56 55 55 55 54 54 52 54 54 54 54 53 52 51 51 51 51 50 46 45 42 43 49 49 52 53 52 56
60 60 60 60 60 58 57 57 57 56 56 56 57 57 56 56 56 55 55 54 54 55 55 54 55 54 53 53 55 54 55 55 54 54 55 55 55 54 53 52 52 51 52 51 52 53 53 52 51 51 51 51 51 50 47 46 41 48 51 49 52 54 53
61 60 60 59 58 58 58 57 56 55 56 57 56 57 56 56 55 55 55 54 53 53 53 53 54 54 53 54 53 54 54 55 54 53 53 54 54 53 52 51 51 50 51 52 52 52 52 52 51 50 50 50 50 50 49 46 43 43 50 50 51 52 54
59 59 58 58 58 57 57 57 56 55 56 56 56 56 55 55 55 54 54 53 52 52 52 52 52 52 53 53 53 54 54 54 53 52 52 52 53 52 51 51 50 51 52 50 50 50 50 51 50 50 50 49 48 49 48 46 43 43 47 52 51 51 54
59 58 58 58 57 57 56 55 56 57 56 56 57 56 55 55 54 53 52 51 51 51 51 51 51 51 52 52 52 54 53 52 51 51 51 51 51 51 50 49 50 50 50 49 49 49 49 49 49 48 48 48 48 48 50 46 45 44 43 48 50 53 53
58 57 57 57 57 57 57 57 57 56 56 55 56 55 54 54 53 52 51 50 50 49 49 49 50 50 50 52 52 52 52 51 51 50 50 50 50 50 49 49 49 49 49 48 48 48 49 48 48 47 47 48 48 48 49 49 46 44 44 46 50 50 52
57 56 56 55 55 56 56 57 58 57 56 56 55 55 54 53 52 51 50 49 49 48 48 48 48 49 50 50 51 51 51 51 51 51 50 50 49 49 48 48 48 48 48 46 46 46 47 46 45 46 46 47 47 47 48 48 48 46 46 44 48 49 51
55 55 55 55 55 56 56 56 56 55 54 54 54 54 53 52 51 50 49 48 48 47 47 47 47 47 48 49 49 51 51 51 50 50 50 50 51 49 48 48 48 48 47 46 45 45 45 44 45 46 46 46 46 47 47 48 48 48 46 45 47 50 51
55 55 55 55 55 56 56 56 55 55 56 54 54 53 52 52 51 49 49 48 47 46 46 45 45 46 47 48 48 50 50 50 50 50 49 49 49 49 48 48 48 48 47 45 44 44 43 43 44 45 45 45 46 46 46 47 47 47 47 47 47 46 49
55 55 55 55 56 56 56 55 56 55 55 54 53 52 52 51 50 49 48 47 47 46 45 44 43 44 45 46 47 49 50 49 49 49 49 49 49 49 49 48 48 48 47 46 44 43 43 43 44 45 46 47 48 47 46 46 47 46 46 45 46 46 46
54 54 54 55 55 54 54 54 54 54 54 53 53 52 51 50 50 49 48 47 46 45 44 43 42 42 43 44 46 47 49 49 48 48 49 49 49 48 48 48 48 48 48 47 46 44 43 43 44 45 47 47 47 47 46 46 46 45 45 44 44 44 45
54 55 55 55 54 54 54 54 54 54 54 54 53 52 52 50 49 48 47 46 46 45 43 43 42 41 41 43 43 45 48 49 48 48 48 48 48 48 47 48 48 50 51 52 49 47 46 46 45 44 45 45 46 46 46 45 44 44 43 43 43 44 43
54 54 54 53 53 53 53 53 53 53 53 53 52 52 50 50 48 47 46 45 45 44 43 43 44 43 44 42 43 44 48 48 48 48 48 47 47 47 46 46 49 54 51 51 48 46 45 45 46 45 43 45 46 46 46 44 44 43 43 41 41 41 41
54 53 53 53 52 53 53 53 52 52 51 51 51 51 50 48 47 46 45 44 43 43 42 43 42 41 41 43 44 42 46 47 48 48 47 46 46 46 46 46 44 50 50 49 48 46 44 44 44 44 44 46 46 46 45 44 44 44 42 41 42 42 41
54 53 53 53 53 53 53 52 51 51 51 51 51 50 49 48 47 46 45 44 42 43 42 43 41 42 41 41 44 43 44 48 48 47 47 46 46 45 44 44 45 47 47 49 48 44 45 45 44 43 44 44 44 44 43 45 44 44 43 42 41 41 41
53 53 53 52 52 52 51 51 51 51 50 51 50 49 48 47 46 45 45 43 42 42 41 42 41 42 42 42 42 44 46 50 48 47 46 46 45 44 44 45 44 46 47 52 49 43 42 42 44 44 45 46 46 46 43 42 43 46 46 44 42 42 42
53 52 52 52 52 51 51 50 49 49 50 49 49 48 47 46 46 45 44 43 42 42 41 42 41 42 42 42 42 44 49 49 48 47 46 45 44 43 44 45 44 45 45 45 44 43 42 41 41 43 44 45 45 46 45 44 44 44 46 47 44 42 44
52 52 52 52 52 51 50 49 49 49 48 48 48 47 47 45 46 45 43 42 42 42 43 42 42 42 42 43 44 46 48 50 48 46 46 44 44 44 45 46 43 44 44 44 47 44 42 40 40 42 43 45 45 46 45 45 46 47 47 47 46 45 45
51 51 51 51 50 49 48 49 48 48 48 47 47 47 46 46 45 44 43 41 41 41 42 42 42 42 43 43 46 49 48 47 46 45 45 44 44 45 45 44 44 44 44 44 47 42 42 42 41 42 43 44 45 45 45 48 46 45 46 45 46 46 46
51 51 50 49 49 49 48 48 48 48 47 47 47 47 46 46 45 44 42 42 40 40 42 42 42 42 43 43 45 47 47 46 46 44 44 44 44 45 46 46 45 43 44 45 45 41 41 43 42 42 42 42 44 45 46 47 46 45 44 43 43 43 43
50 50 49 49 48 48 48 48 48 49 49 48 48 48 47 46 44 43 41 42 42 41 40 43 42 42 42 43 45 45 45 44 44 44 43 44 45 44 45 54 53 45 45 45 43 41 41 43 42 42 41 41 42 44 46 46 45 46 46 45 45 44 44
49 49 48 48 49 48 49 49 49 49 48 48 47 47 46 45 43 42 41 43 51 43 40 43 42 42 42 42 45 44 44 43 43 42 43 42 42 44 45 48 50 48 46 45 42 42 41 42 42 42 41 41 42 43 45 44 43 44 46 46 45 45 44
49 49 49 48 48 48 48 49 49 48 48 48 47 46 45 44 42 42 43 42 44 42 42 41 42 42 42 42 42 45 44 42 41 41 42 46 45 44 44 45 46 44 42 42 41 41 41 41 42 43 42 41 41 43 44 45 47 46 46 45 43 44 43
50 48 48 48 49 49 49 48 47 48 47 47 46 45 45 44 44 42 42 42 42 42 43 42 42 42 42 42 41 42 41 41 39 40 41 42 43 43 43 44 44 45 42 41 41 41 42 42 43 45 44 41 42 42 45 46 46 46 46 45 43 43 44
49 50 49 49 48 47 47 48 48 48 47 46 46 46 45 45 44 42 42 43 42 41 46 47 43 43 42 42 40 41 42 40 40 41 42 41 42 43 42 42 43 44 41 40 41 42 42 42 44 45 44 41 43 42 46 47 45 45 46 45 43 43 45
50 51 50 49 48 47 47 49 48 48 47 46 45 45 45 45 44 42 42 42 41 41 41 44 44 44 42 41 41 40 41 42 41 43 40 41 40 42 42 42 44 44 40 40 42 43 43 42 45 43 42 42 43 42 45 46 44 44 44 44 43 43 44
50 49 49 48 47 46 47 48 48 48 46 46 44 45 44 45 43 43 41 40 42 41 42 41 43 43 43 41 41 40 41 41 41 42 41 42 42 41 41 41 42 40 40 42 44 43 43 43 44 42 42 42 44 43 45 44 44 43 43 43 43 43 43

ECMWFFLT1_sfc_temp_123.txt.gz
Temp
62 61 62 62 62 61 59 58 59 58 59 59 58 58 58 58 58 57 57 57 57 57 57 55 54 54 55 56 56 55 55 54 53 52 50 51 50 50 54 53 53 54 53 52 51 48 49 47 48 52 54 54 54 53 54 54 54 54 55 56 56 57 56
63 63 63 63 62 61 59 58 58 57 58 58 58 57 57 57 58 56 56 56 56 56 57 55 54 54 53 53 53 53 53 53 54 53 52 50 50 49 50 50 51 51 51 51 50 49 47 45 46 46 47 51 51 50 52 52 53 54 55 55 56 56 55
64 63 63 61 61 60 58 56 56 57 57 57 56 56 56 56 56 56 56 55 55 56 56 53 54 54 53 53 52 53 53 53 53 53 52 51 51 51 50 49 48 48 49 48 48 46 45 47 43 44 45 44 43 46 51 51 52 53 54 53 53 54 54
63 62 60 59 59 59 57 57 56 56 55 54 54 55 54 55 55 56 55 55 55 56 55 54 53 53 53 53 53 54 53 52 52 51 52 51 51 50 49 49 47 47 47 46 45 45 43 42 42 42 42 44 43 43 47 50 51 52 53 53 53 52 53
63 61 60 58 58 57 57 55 54 54 53 54 54 53 53 54 54 54 55 54 54 53 53 53 53 53 53 54 53 53 52 52 52 51 50 49 49 48 48 48 48 48 47 46 45 45 43 42 41 40 41 43 44 44 48 49 50 51 51 52 53 53 53
62 61 59 58 57 57 56 54 54 53 52 53 52 52 52 53 54 53 53 53 53 53 53 53 53 53 53 53 53 52 52 50 50 49 48 48 48 47 46 47 47 47 46 47 46 45 44 44 43 41 44 45 41 43 46 48 47 50 51 51 52 52 52
61 60 58 57 56 56 56 55 54 53 53 52 52 51 52 53 53 53 53 52 52 53 53 53 53 53 53 52 52 51 50 50 50 49 48 48 48 47 48 47 46 46 46 46 46 45 44 44 43 43 42 44 43 42 46 46 48 46 47 51 52 52 52
61 60 58 58 57 56 56 55 54 53 53 52 51 52 53 52 52 52 53 51 52 51 52 52 53 52 52 52 52 51 50 50 49 49 48 48 47 46 46 46 47 46 45 46 45 45 46 46 46 45 43 39 40 43 43 45 45 45 45 49 52 51 52
60 59 58 57 57 57 56 55 54 53 52 52 52 52 52 52 52 51 52 51 51 52 52 52 52 51 51 51 50 50 49 51 49 48 48 47 46 46 45 45 45 45 46 46 46 46 47 48 48 47 46 43 39 37 41 40 42 43 48 46 49 50 52
59 58 57 56 56 56 56 55 54 53 53 52 52 52 51 52 51 51 51 51 51 52 52 52 51 51 50 50 49 49 48 49 49 47 47 47 46 46 45 45 45 45 45 45 46 46 48 49 48 48 48 45 44 40 37 37 40 41 45 48 45 49 52
59 58 58 57 57 55 54 54 54 53 52 53 52 53 51 51 51 52 50 50 51 51 51 51 51 50 50 49 49 48 48 48 48 48 48 46 46 46 46 45 45 44 45 44 44 45 45 46 46 46 45 45 44 41 40 37 39 43 43 46 47 46 50
59 59 58 58 57 55 53 53 52 52 52 52 52 51 50 50 50 50 50 50 50 50 50 50 50 49 49 48 49 48 48 47 47 46 46 47 46 45 44 44 44 43 44 43 43 44 44 45 44 44 44 45 44 43 42 41 38 43 46 43 46 49 48
59 59 58 57 56 55 54 53 51 51 50 51 50 50 49 49 49 49 49 49 49 49 49 49 49 49 48 47 47 47 47 47 46 45 45 45 46 44 44 43 43 42 42 42 42 43 43 44 44 43 43 43 42 43 44 43 41 40 45 45 46 48 49
58 58 58 58 56 55 54 53 51 50 50 49 49 49 48 48 48 48 49 49 48 48 48 48 48 48 48 47 47 46 46 46 45 44 45 44 44 44 43 43 42 42 42 42 41 42 42 42 43 43 43 42 41 42 42 42 40 40 44 47 46 47 49
58 58 57 56 55 53 52 51 50 50 49 48 49 48 48 47 48 48 48 48 48 48 48 48 47 48 47 46 46 47 45 45 44 44 44 43 43 44 43 42 42 42 42 41 41 41 41 41 42 41 42 42 41 41 43 41 40 39 39 44 45 48 47
56 55 55 54 53 52 50 50 50 49 48 47 48 47 47 47 47 47 47 47 47 47 47 47 47 47 46 46 45 45 45 44 44 43 43 42 42 42 42 42 41 41 43 41 41 40 41 40 41 41 41 42 41 41 42 42 40 39 39 41 44 44 45
54 53 53 52 51 50 49 49 49 48 47 47 46 46 46 46 47 47 46 46 46 46 46 46 46 46 46 45 45 44 44 44 43 43 43 42 42 42 41 41 40 40 40 40 40 40 40 40 40 41 41 41 41 41 42 42 42 40 40 39 42 43 45
52 51 51 50 49 49 49 48 49 48 47 46 46 46 46 46 46 46 45 45 45 45 45 46 45 45 45 45 45 44 44 43 43 42 42 43 45 41 41 40 40 40 39 40 40 40 40 39 40 40 40 41 41 42 42 42 42 41 40 39 41 44 45
51 51 50 49 49 49 48 48 47 47 47 46 45 45 45 45 46 44 44 44 44 44 44 44 44 44 44 45 44 44 44 43 43 42 42 42 41 41 41 40 41 40 39 39 40 40 39 39 40 40 40 41 41 41 40 41 42 41 41 40 41 41 44
51 51 50 49 49 48 47 47 47 46 47 46 45 44 44 44 44 44 44 44 44 44 43 43 43 43 44 44 44 44 43 43 42 42 41 41 41 41 40 41 41 40 40 40 40 39 39 39 40 39 40 40 40 40 40 40 41 40 40 40 41 42 42
51 50 50 49 48 48 47 47 46 46 46 45 44 44 44 43 43 44 43 43 43 43 42 42 41 42 42 43 43 43 43 43 42 41 41 41 41 40 41 41 41 41 42 42 41 40 39 39 40 40 40 40 40 39 39 40 40 40 40 40 40 40 42
51 51 50 49 48 47 47 46 46 46 45 45 45 43 43 43 43 42 42 42 42 43 42 42 42 42 42 42 42 43 43 43 42 41 40 40 40 40 40 41 42 43 49 51 49 47 45 45 41 39 40 39 40 39 38 39 39 39 39 39 40 41 41
50 50 49 48 47 47 46 46 45 44 44 43 43 43 43 43 43 42 42 41 41 42 41 42 45 47 47 44 42 43 42 41 40 41 41 41 41 41 41 40 44 52 49 49 48 45 43 44 45 42 41 39 38 38 38 38 39 39 39 38 39 39 39
50 49 48 47 47 46 45 45 44 44 43 43 42 43 42 42 41 42 42 41 40 40 40 42 43 42 43 45 44 42 42 40 40 40 39 39 40 43 42 41 40 46 47 46 45 44 43 43 43 43 44 45 45 41 38 38 39 40 39 38 39 39 39
49 48 48 47 46 46 45 44 44 43 42 42 42 42 41 40 40 40 41 40 39 40 40 44 40 42 43 44 46 43 41 41 41 40 40 39 39 39 41 42 42 42 43 46 44 40 41 43 43 43 43 43 43 44 43 39 39 39 39 38 38 39 39
48 48 47 47 46 46 45 44 43 42 41 41 41 41 40 40 39 40 41 40 39 39 38 42 41 42 43 43 43 43 41 40 41 40 40 40 39 38 40 42 42 43 42 48 45 39 38 39 43 44 44 44 44 45 41 41 43 43 40 39 38 38 40
48 48 47 47 46 45 44 43 42 42 42 41 40 40 39 39 39 40 40 40 39 38 39 42 41 42 43 42 42 43 39 40 40 40 40 37 38 39 39 40 40 41 40 40 40 39 38 37 38 39 40 41 41 43 43 43 43 43 43 41 38 38 41
48 47 47 47 46 45 44 42 42 41 41 41 40 39 39 39 40 40 40 40 41 40 40 42 41 41 42 42 41 42 39 41 39 38 37 38 37 37 38 39 38 38 38 39 42 40 38 37 37 39 39 40 40 41 41 42 42 42 42 42 41 40 41
48 47 47 46 45 44 43 43 41 41 40 38 39 39 38 40 39 39 40 41 40 38 37 41 41 42 42 42 43 43 39 37 37 37 37 37 38 37 37 38 38 38 38 37 42 40 41 39 36 38 38 38 39 40 41 45 43 43 43 42 42 42 42
47 47 47 46 45 44 43 42 41 41 40 39 39 39 39 39 39 39 39 40 39 36 36 40 41 42 42 41 42 40 38 39 37 36 36 37 36 37 37 40 40 37 37 37 41 39 39 42 37 37 37 37 38 39 40 42 43 43 43 43 42 43 42
47 47 46 45 45 44 43 43 42 43 41 40 39 39 39 38 37 38 39 38 40 38 36 39 41 41 41 42 43 39 38 38 35 36 36 36 37 36 38 48 47 38 36 37 40 39 39 40 37 36 35 36 37 37 39 40 40 42 43 43 43 43 43
48 47 47 46 45 44 44 44 43 42 41 41 40 39 40 38 37 36 38 39 46 40 37 39 40 40 40 41 42 39 39 38 36 34 35 38 37 37 37 40 45 42 39 40 39 39 39 40 36 35 34 34 36 36 38 37 37 39 39 40 41 42 42
47 47 46 46 45 45 45 43 42 42 40 40 40 38 39 39 38 37 37 38 39 38 38 37 38 40 40 40 41 39 38 38 38 36 34 38 38 36 36 36 40 40 39 39 39 39 39 39 37 35 34 35 35 36 38 37 40 40 38 38 38 40 40
46 46 46 46 46 45 44 43 42 42 40 40 39 39 38 38 39 36 35 35 36 36 38 37 37 39 40 40 40 40 37 36 34 35 33 35 32 33 35 36 35 40 39 38 39 39 39 39 40 37 34 34 34 38 39 37 39 41 37 38 39 40 40
47 46 47 46 45 43 43 44 43 42 41 40 40 38 37 38 37 36 35 36 36 36 41 42 37 39 39 40 40 40 39 36 34 34 35 33 33 33 32 33 35 39 38 38 38 39 39 39 40 39 38 38 39 38 39 39 37 37 37 37 37 38 39
47 47 46 45 44 42 42 43 42 42 41 40 39 38 37 37 36 35 35 34 33 34 35 39 41 38 39 39 39 39 39 37 40 36 35 37 34 33 33 34 35 41 38 38 38 39 39 39 40 38 38 38 39 38 39 36 37 36 35 36 36 36 37
48 47 45 44 44 42 42 42 42 42 41 40 39 38 36 37 36 36 35 34 35 34 33 34 40 40 38 38 38 38 38 38 38 36 37 34 33 33 33 32 36 38 38 39 38 39 39 39 37 38 38 38 39 38 36 36 35 35 35 35 35 35 36

ECMWFFLT1_sfc_temp_129.txt.gz
Temp
65 63 62 63 63 63 62 61 63 63 64 65 65 67 68 68 67 67 66 66 66 66 66 64 63 63 63 63 63 63 63 63 62 61 60 61 60 59 60 60 59 59 59 58 56 55 56 55 60 62 62 59 60 60 60 60 61 60 60 60 61 61 62
66 63 63 63 61 61 59 60 61 62 62 64 66 66 67 67 66 65 65 65 64 64 65 63 63 63 61 61 61 61 60 60 61 60 60 59 59 58 59 58 59 59 59 57 57 57 56 55 58 55 55 59 60 60 60 61 62 61 61 61 61 61 61
62 62 62 60 59 59 59 60 61 61 61 62 63 64 64 65 65 66 65 64 63 64 63 62 62 61 60 60 60 59 59 58 59 59 58 58 58 57 58 58 57 58 58 57 55 55 55 54 52 54 55 54 54 56 59 59 60 61 62 61 61 62 62
62 62 60 58 58 59 59 59 60 60 61 61 62 62 62 63 63 64 64 63 63 63 63 62 61 61 60 59 59 59 58 58 58 57 57 57 57 56 56 57 55 55 54 53 53 54 54 52 54 55 56 58 57 56 58 59 60 63 63 63 61 61 61
62 60 59 57 58 59 59 58 59 60 60 61 61 60 60 62 63 63 63 63 62 62 61 61 61 61 60 60 59 59 58 57 57 57 56 55 56 56 55 56 55 56 55 55 55 55 54 53 54 54 56 58 61 61 61 60 62 62 63 63 64 63 63
61 60 58 58 59 58 59 59 59 59 59 59 59 59 60 62 63 62 62 61 61 60 60 60 60 60 60 59 58 57 57 56 56 56 55 54 55 55 55 56 56 56 55 56 56 55 56 56 55 54 56 58 55 58 61 62 60 65 64 64 64 64 64
61 60 60 60 59 59 60 60 60 58 58 58 59 59 61 62 62 61 61 60 60 60 60 59 59 60 59 59 58 57 56 56 56 55 55 55 55 55 56 55 55 56 56 56 56 56 55 54 53 52 53 57 56 58 61 62 62 60 62 65 65 64 64
60 60 60 61 60 60 61 60 60 60 59 59 60 60 61 60 60 60 60 60 60 59 59 59 59 59 58 58 57 56 56 56 56 55 55 54 54 54 54 55 55 56 56 56 57 56 57 55 54 53 53 52 55 58 56 61 61 59 59 63 65 64 64
61 61 61 61 60 60 60 60 59 60 59 59 59 60 60 61 60 60 60 60 60 59 59 59 59 59 58 57 56 56 55 56 55 55 55 55 54 54 54 56 56 55 56 57 57 56 57 56 56 55 54 53 51 51 54 55 57 58 63 59 63 64 63
61 60 59 60 60 60 60 59 59 59 59 59 59 60 60 60 60 60 59 59 59 59 59 59 58 58 57 57 56 55 54 56 55 55 55 55 55 55 55 55 56 56 56 57 57 57 57 57 57 56 56 53 53 51 49 51 53 53 59 60 57 61 63
61 60 59 59 60 60 58 58 59 59 59 59 60 60 60 59 59 59 59 58 58 58 58 58 58 58 57 56 56 55 56 56 55 55 56 56 55 56 55 56 56 56 56 57 56 56 57 56 56 56 56 56 55 51 50 49 51 56 54 58 59 58 60
60 59 59 60 60 58 58 58 58 58 59 60 59 59 59 59 59 59 59 58 58 58 58 57 57 57 57 55 55 55 56 56 56 55 55 55 56 56 56 55 56 56 56 56 57 57 57 57 57 57 57 57 55 53 52 51 49 56 57 54 57 60 59
60 60 60 59 58 57 58 58 58 58 58 59 60 60 60 59 59 58 58 58 57 58 57 57 57 57 56 55 56 55 56 56 56 55 55 56 56 56 56 55 55 55 56 57 57 57 57 57 56 57 57 56 56 54 54 52 50 51 57 56 56 59 60
60 60 59 59 57 57 58 58 58 58 59 59 60 60 59 60 60 59 59 58 58 57 57 56 57 56 56 55 56 56 56 57 56 56 56 55 56 56 56 56 56 55 56 56 56 57 57 57 57 57 57 57 56 55 54 52 50 51 56 59 58 58 59
60 60 58 57 57 58 58 57 57 58 58 59 61 60 60 59 59 59 59 59 58 58 57 57 57 56 56 55 54 55 55 56 56 56 56 56 56 55 56 56 56 56 56 56 55 56 57 57 57 57 56 56 56 55 55 52 52 51 50 56 56 59 58
59 58 57 57 58 58 57 57 57 57 58 59 60 60 59 59 59 59 59 58 58 58 57 57 56 56 56 56 56 55 56 56 56 55 55 56 57 57 56 56 56 56 56 56 56 56 56 56 57 56 55 56 55 54 55 54 52 51 51 52 56 56 56
58 57 57 58 57 57 56 56 57 57 59 60 59 59 60 60 59 58 58 58 58 57 57 56 56 57 57 57 57 56 57 56 57 57 56 57 57 57 57 56 56 56 57 56 56 56 56 56 56 56 56 56 55 54 55 55 55 53 52 51 54 55 56
57 57 57 57 55 55 55 56 56 57 58 59 59 59 59 59 59 58 57 58 57 57 57 57 56 56 56 57 57 56 57 57 56 57 56 56 55 57 56 56 56 57 57 55 55 55 56 54 56 56 55 56 56 55 56 56 55 55 53 52 53 56 57
57 57 56 55 55 55 55 55 56 56 59 59 58 58 58 59 59 59 59 58 58 58 58 57 57 57 57 57 57 57 57 57 57 57 57 57 57 57 56 56 56 57 56 55 54 54 55 54 55 55 54 55 56 56 55 55 56 55 54 54 54 54 56
56 55 55 54 54 54 54 55 57 58 59 59 58 58 58 58 59 59 58 58 57 57 57 57 57 57 57 57 57 57 56 56 56 56 57 57 57 56 57 57 56 56 55 55 54 54 54 54 54 55 54 54 55 55 55 55 55 54 54 54 55 55 54
55 54 54 54 54 54 55 56 57 58 58 58 58 59 58 58 58 59 58 58 58 57 57 57 57 57 58 57 57 57 57 56 56 56 56 56 56 56 57 57 57 57 56 55 54 54 54 54 55 55 55 55 55 54 54 55 54 55 54 54 54 53 54
54 53 54 54 54 55 56 56 57 58 58 57 57 58 58 58 57 57 57 57 57 57 56 56 56 56 57 57 58 57 57 57 57 56 57 57 57 57 58 57 57 57 54 49 46 47 47 48 53 54 54 55 54 54 54 54 54 54 54 54 53 54 53
53 53 53 54 55 56 56 56 56 57 57 57 57 57 58 58 58 57 56 56 56 55 55 56 52 49 52 57 57 57 57 57 57 57 57 56 56 57 57 57 55 50 50 49 46 44 43 44 45 49 52 53 53 53 53 53 53 53 53 52 52 52 50
53 53 55 56 56 56 56 56 56 56 56 56 55 56 57 57 57 56 56 55 55 55 55 54 45 43 44 47 56 57 57 56 57 57 57 56 56 56 57 57 57 54 54 53 53 45 44 43 42 42 43 44 47 50 51 51 51 52 51 52 52 52 51
55 55 56 56 56 56 56 55 55 55 54 54 55 56 55 56 56 56 55 56 55 55 55 48 42 42 42 43 50 57 57 57 57 57 57 57 57 57 56 56 56 55 55 54 56 56 52 46 43 43 42 43 42 42 42 48 49 51 50 51 51 51 51
55 56 56 56 56 55 55 55 54 54 54 54 55 55 55 55 55 55 55 55 55 55 56 44 41 42 41 42 44 52 58 58 57 56 56 56 56 56 57 56 56 55 55 51 55 56 56 56 49 45 46 47 48 44 41 40 42 48 51 51 50 51 51
55 56 55 55 55 55 54 54 54 54 54 54 54 54 54 54 54 55 55 56 55 56 56 44 41 41 41 40 41 48 58 57 56 56 56 56 55 55 55 56 56 56 56 56 55 54 55 55 55 56 56 57 57 53 48 45 44 43 48 52 51 50 52
55 55 55 55 54 54 54 53 53 53 54 54 53 53 53 54 54 55 55 55 55 55 55 42 41 41 40 40 40 48 57 57 57 56 55 54 54 54 54 54 55 55 55 55 51 47 53 54 54 54 55 55 56 56 55 54 52 52 52 52 52 52 52
54 55 54 54 53 53 52 52 52 52 52 52 52 53 54 55 53 53 53 54 55 55 54 40 40 40 40 40 41 56 57 57 56 56 55 55 55 55 55 55 56 55 55 54 45 38 43 51 55 54 54 55 56 56 56 50 44 44 49 51 52 51 52
54 54 54 53 53 51 50 50 49 50 48 46 48 50 52 52 52 52 52 54 55 55 55 44 40 40 40 39 47 58 56 57 56 55 55 55 55 55 55 56 56 56 55 54 42 37 39 43 55 54 54 54 56 57 56 55 48 44 43 42 41 42 41
53 54 54 53 52 50 50 50 50 50 47 45 45 47 50 50 51 52 51 52 54 54 55 48 40 40 40 40 49 56 57 56 55 55 54 54 56 56 53 46 51 56 55 53 39 38 37 47 54 53 53 53 55 54 54 54 54 54 47 45 45 44 44
51 51 51 50 49 49 49 47 47 48 47 46 45 47 49 50 49 49 50 51 50 53 54 50 40 40 40 40 49 57 57 57 55 55 56 55 55 56 55 51 44 46 50 45 36 38 37 46 54 52 52 53 53 53 52 52 52 52 53 54 55 55 54
48 48 48 47 47 44 44 43 43 43 45 45 44 46 47 48 47 47 48 50 50 53 54 54 48 39 41 40 43 57 58 57 55 54 56 57 56 56 56 56 50 38 37 37 38 37 38 38 51 53 53 53 51 51 52 52 52 50 52 53 53 54 54
50 49 48 48 48 48 47 46 45 45 45 46 45 45 44 45 46 46 48 49 51 52 54 54 50 40 40 40 40 46 58 57 57 57 57 56 57 57 57 58 58 42 37 37 37 37 38 37 39 52 52 51 49 46 43 52 53 47 53 53 54 55 56
51 50 51 51 50 49 50 49 49 48 48 47 46 45 45 46 48 48 49 50 51 52 51 49 53 41 40 40 40 41 55 57 57 58 56 57 57 57 57 57 58 45 36 37 37 38 37 39 37 53 48 38 36 36 45 52 54 55 55 56 56 55 55
49 50 50 51 50 48 49 49 49 49 48 47 47 46 47 48 49 49 50 51 51 50 51 50 45 48 41 40 39 40 41 51 40 54 57 57 57 57 57 56 53 40 37 37 38 37 38 37 44 47 35 36 37 36 41 56 54 55 55 55 54 54 54
50 50 50 50 51 50 49 50 50 50 50 49 48 48 49 49 49 50 49 49 49 50 51 53 45 43 45 38 39 39 39 41 42 56 57 58 58 57 57 56 52 37 37 37 38 39 38 40 46 37 37 37 36 41 54 55 55 54 53 54 53 53 53

ECMWFFLT1_sfc_temp_132.txt.gz
Temp
73 71 71 70 69 67 65 64 64 65 69 71 72 75 75 75 74 74 74 73 73 73 73 72 70 70 70 70 69 69 69 69 69 68 67 69 68 65 67 67 66 66 67 66 65 67 67 65 64 68 67 66 67 66 67 67 67 67 66 67 68 68 69
71 70 70 68 66 65 64 63 63 64 65 69 72 72 73 73 73 72 73 72 71 71 72 70 70 69 68 67 67 67 67 67 67 67 67 66 67 66 67 66 68 67 67 66 66 67 65 65 63 62 63 66 67 66 66 67 68 68 68 68 68 68 68
67 66 65 62 62 63 63 64 64 64 65 67 69 71 71 72 72 72 72 70 70 70 70 69 67 67 66 66 66 66 66 65 66 65 65 66 66 65 66 67 66 67 66 66 65 65 65 65 63 62 64 63 62 64 66 65 67 69 70 69 68 69 69
67 64 60 60 61 62 63 64 64 65 67 67 67 67 70 71 71 71 69 69 69 69 69 69 67 67 67 66 66 65 65 65 65 64 64 64 65 64 65 65 64 64 63 62 62 64 63 62 64 64 66 68 67 64 65 67 68 71 72 71 69 69 69
66 64 62 59 61 64 64 62 64 65 65 65 66 67 68 69 67 68 69 69 68 68 67 68 68 68 68 67 66 66 64 64 65 64 64 63 63 64 63 64 64 64 64 63 64 64 63 63 64 64 65 67 70 70 70 69 72 72 72 72 72 72 71
65 64 63 61 62 62 63 62 63 63 64 65 67 67 66 66 67 68 68 67 67 67 67 68 67 67 67 66 65 64 64 64 63 63 62 62 63 63 63 64 65 64 64 64 64 64 64 65 63 63 66 68 63 66 70 71 70 73 73 72 73 73 73
64 63 64 64 64 64 66 64 63 64 65 66 67 68 70 70 70 68 68 67 67 67 67 66 66 67 66 65 64 64 63 64 64 63 62 62 62 63 64 64 64 64 63 64 64 64 63 63 61 60 62 65 65 67 70 71 71 69 70 73 74 73 72
64 64 63 62 62 64 66 66 64 65 65 66 67 68 68 68 67 68 67 67 66 66 66 65 65 65 65 65 64 63 64 64 64 63 62 62 61 62 62 63 63 63 64 64 64 64 64 63 62 61 61 61 64 65 65 69 70 68 67 71 74 72 72
63 63 62 62 64 65 66 65 64 64 64 64 65 65 66 67 67 66 67 66 66 66 66 66 65 65 65 64 64 63 62 64 63 62 62 62 61 62 62 63 63 63 63 64 65 64 64 64 64 63 63 61 60 60 64 63 64 66 70 67 71 72 71
65 63 62 62 64 66 65 63 63 64 64 63 64 65 65 67 67 67 66 65 65 65 65 65 65 65 65 64 63 63 62 63 63 63 63 62 62 63 63 62 63 63 63 64 64 64 64 64 64 64 64 61 61 59 58 60 60 60 66 68 64 69 71
65 64 63 63 64 64 64 63 63 63 64 64 64 65 66 66 65 66 65 65 64 65 65 66 66 65 64 64 63 63 64 63 63 63 63 63 62 63 63 63 63 63 63 64 63 63 63 64 64 64 64 63 62 59 59 58 59 62 62 65 66 65 68
64 63 63 65 65 64 62 63 64 64 64 65 65 66 66 67 66 65 65 64 64 64 65 65 65 65 64 63 63 63 63 64 63 62 63 63 63 63 62 62 63 63 63 63 63 64 63 64 64 65 64 64 62 60 59 60 58 62 64 61 64 68 67
65 64 63 60 60 61 63 64 64 63 64 67 67 67 67 66 66 65 65 65 65 65 65 65 65 64 64 64 64 63 63 64 63 62 63 63 63 63 63 62 62 63 64 64 64 64 64 64 64 64 64 64 63 61 61 60 58 59 64 63 64 67 68
64 65 64 64 62 62 61 63 64 65 66 66 67 66 66 67 67 66 66 66 66 65 64 64 64 64 64 63 63 63 64 64 63 63 63 62 64 63 64 63 63 63 64 63 64 64 64 64 65 64 64 64 63 62 61 59 58 59 63 66 65 65 67
66 66 64 63 61 62 63 64 65 66 66 66 67 67 67 67 67 67 67 66 66 66 65 65 65 65 64 62 62 63 63 64 63 63 63 62 62 63 63 63 63 63 63 63 63 64 64 64 65 64 64 63 63 62 62 59 59 59 57 63 63 66 66
66 64 62 61 61 63 64 65 67 66 67 67 68 68 67 67 67 67 67 66 66 66 65 65 64 64 63 63 63 63 63 63 63 62 62 63 64 64 63 62 62 63 63 62 62 63 63 63 64 63 62 63 62 61 62 61 59 58 58 60 63 63 64
65 64 61 60 62 63 64 65 67 67 68 68 68 67 68 68 67 66 66 66 66 65 65 64 64 65 65 64 64 63 64 63 64 64 63 64 64 64 63 62 62 63 63 62 63 63 63 63 63 63 63 63 63 61 62 62 61 60 59 58 61 63 64
65 63 61 61 62 64 65 65 66 67 67 68 68 67 67 68 67 66 64 66 65 65 65 65 65 64 64 64 64 64 64 64 63 63 63 63 62 63 63 62 63 63 63 62 62 63 62 61 63 63 62 63 63 62 62 63 62 62 60 59 60 63 64
64 63 62 61 62 64 64 64 64 66 68 68 67 67 67 67 67 67 67 67 66 66 66 65 65 65 65 64 64 64 64 64 63 64 64 64 64 63 63 63 63 63 63 61 61 61 61 60 61 61 61 62 63 63 62 62 63 62 61 61 61 61 63
64 63 62 63 64 63 62 62 64 66 68 68 67 66 67 67 66 67 67 66 66 66 65 65 65 64 64 65 64 64 63 63 63 63 64 64 64 64 64 63 63 62 62 62 61 60 60 60 61 61 61 61 62 61 61 62 62 61 61 61 62 62 61
64 64 64 64 63 62 62 63 65 66 67 67 67 67 67 66 66 67 66 66 66 66 65 65 65 65 65 64 63 63 63 62 62 62 62 63 63 63 63 63 63 62 61 61 60 60 59 59 61 61 61 61 61 60 60 61 61 61 61 61 60 60 61
62 62 63 62 60 60 61 63 64 66 67 67 66 68 67 67 66 66 66 65 65 65 64 63 64 64 63 64 64 63 63 64 63 62 63 63 63 64 64 62 61 60 56 51 47 49 49 49 57 60 60 61 60 60 59 60 60 60 60 60 59 60 59
61 62 60 58 59 60 62 64 65 66 66 66 67 67 67 66 66 65 64 65 64 63 63 63 58 54 57 64 64 64 63 63 63 63 62 62 62 63 63 61 58 53 52 50 49 45 44 45 45 53 57 59 58 58 58 58 59 59 59 58 58 58 56
60 58 58 59 59 60 62 64 65 65 65 65 65 65 65 65 65 65 64 64 63 62 62 60 45 45 46 53 62 63 63 63 63 63 63 62 61 62 63 64 63 59 57 54 53 43 44 42 43 43 43 45 49 55 56 56 57 58 57 58 58 57 56
58 58 58 59 60 62 63 64 65 65 64 63 64 64 64 64 64 64 63 64 62 61 61 48 43 43 46 45 51 63 63 63 63 63 63 63 63 63 62 62 62 61 60 60 62 60 53 46 44 43 41 42 43 43 43 51 54 56 56 56 56 56 56
57 57 58 60 62 63 64 65 65 64 63 63 63 63 64 63 63 63 63 63 62 61 60 44 42 42 44 45 45 53 65 64 63 63 63 63 63 63 63 62 61 61 61 56 59 63 63 61 50 45 45 42 42 43 41 40 42 52 56 56 56 56 56
57 58 59 62 63 64 65 65 64 64 63 63 63 62 62 61 62 62 62 62 62 62 59 44 41 41 43 41 43 46 66 63 63 63 63 62 62 62 62 63 62 61 61 61 60 60 62 62 63 62 62 62 61 53 42 39 41 39 47 58 57 56 57
57 59 60 63 65 65 64 64 63 63 63 62 62 62 61 61 61 62 62 62 62 61 58 41 41 40 41 41 41 45 63 62 62 62 62 61 62 61 61 61 61 61 61 60 57 51 57 61 62 62 62 61 62 62 62 60 59 59 59 58 59 58 58
58 60 61 64 65 64 63 62 62 62 62 63 63 63 62 63 61 62 62 62 61 59 56 40 40 41 40 42 40 58 61 61 61 62 61 61 61 62 62 62 62 61 61 59 49 37 44 53 62 62 61 62 63 63 63 55 50 50 54 58 59 58 59
58 60 62 62 63 63 62 62 62 63 62 62 61 61 61 61 62 61 60 59 58 58 55 43 40 40 41 40 45 61 61 62 61 60 60 60 61 61 61 61 62 62 61 59 44 36 40 42 62 61 61 61 62 63 62 61 46 40 40 41 42 42 41
59 60 62 63 62 62 62 62 62 62 62 61 60 61 61 61 60 58 55 56 57 55 54 46 40 41 40 40 47 61 62 62 60 60 60 60 62 61 57 49 53 61 60 58 40 38 38 49 62 61 61 61 61 60 60 61 62 60 48 46 44 42 43
60 59 60 62 62 61 61 61 61 62 61 61 60 60 59 57 55 54 55 55 54 55 54 47 40 41 40 41 47 61 62 63 60 60 60 60 61 62 60 55 45 49 54 48 35 39 38 48 61 60 60 61 59 59 58 60 60 59 60 61 62 63 60
61 61 62 63 62 61 61 60 58 58 58 59 58 57 56 56 54 54 54 56 56 56 54 52 47 40 41 40 41 57 64 62 60 59 61 62 61 62 62 61 50 37 38 37 37 37 40 36 54 60 60 60 58 56 58 58 59 59 59 61 62 63 62
60 61 62 60 59 57 55 53 52 52 52 54 52 53 56 55 55 53 54 56 56 56 56 55 51 39 41 40 41 42 61 61 62 61 62 61 64 62 63 64 62 41 38 38 38 36 40 39 39 56 58 58 55 50 46 57 59 52 62 62 62 62 62
60 59 58 57 55 54 55 56 54 53 54 54 55 55 56 56 56 55 56 57 58 58 58 54 56 42 41 40 41 39 55 62 62 63 62 63 64 64 64 64 63 46 37 40 38 40 35 40 38 56 53 41 37 36 49 56 60 63 63 63 62 61 61
57 58 57 57 57 56 57 57 56 57 56 56 56 56 56 56 56 56 57 58 59 59 60 58 50 51 42 40 40 40 40 48 46 59 62 63 63 63 64 63 58 39 39 37 40 38 40 36 40 53 35 36 38 37 41 58 63 62 61 61 60 60 60
59 58 57 58 58 57 57 57 57 57 58 58 57 56 57 57 57 57 57 58 59 60 60 61 50 47 48 39 41 40 40 38 40 58 61 63 64 64 63 64 57 38 38 38 37 38 40 41 51 38 36 37 37 38 56 63 61 61 59 59 59 59 59

ECMWFFLT1_sfc_temp_135.txt.gz
Temp
67 69 70 73 73 72 71 69 70 70 71 72 73 74 75 76 76 75 76 76 76 75 75 73 71 72 71 71 71 72 72 71 72 71 70 71 68 67 70 70 70 70 72 71 70 68 70 64 63 67 68 68 68 68 68 69 69 69 69 69 70 70 71
72 71 73 72 69 69 68 68 69 68 67 69 71 72 73 74 75 75 75 75 74 73 73 71 71 71 69 68 68 69 68 69 70 70 69 68 69 68 69 69 71 70 71 70 71 71 67 67 65 65 65 68 68 68 68 69 70 71 71 70 71 71 71
70 71 72 70 67 68 67 67 65 65 66 67 67 70 72 75 74 74 75 73 72 71 71 70 69 68 68 68 68 68 68 67 68 68 67 68 68 68 70 69 68 69 69 68 68 69 69 68 65 65 67 66 65 66 68 68 71 73 74 72 72 73 72
69 69 67 66 65 64 64 64 64 64 65 65 68 69 71 74 74 73 72 72 71 71 71 71 69 68 67 67 68 68 68 67 67 66 66 67 67 67 68 68 67 67 65 64 65 66 66 65 67 67 69 72 70 66 68 71 72 75 75 74 72 72 72
68 67 66 64 63 63 63 63 64 64 64 65 66 68 70 71 71 71 71 70 70 69 69 70 70 70 69 69 68 67 67 67 67 66 66 66 67 67 66 67 66 67 66 66 67 66 66 65 66 67 68 70 72 72 73 72 76 75 75 75 75 74 73
68 68 67 66 66 65 64 64 64 62 63 64 65 67 67 68 69 68 68 67 67 68 69 69 69 70 69 68 67 66 66 65 65 66 65 65 66 66 65 67 68 67 66 67 67 66 67 67 66 65 69 71 66 69 73 73 71 75 75 75 75 75 75
68 67 69 68 68 67 65 63 62 61 61 63 66 66 67 69 69 68 67 67 68 69 69 69 69 70 69 68 67 66 65 65 66 65 65 65 65 66 67 66 66 66 66 67 67 67 65 65 63 62 63 68 68 69 72 73 73 70 72 76 76 75 74
69 68 69 69 68 66 65 64 63 64 63 64 65 67 68 69 69 68 68 68 68 68 69 68 68 68 68 67 67 65 66 66 66 65 65 65 64 65 66 66 66 66 67 67 67 66 67 65 64 63 63 62 66 67 67 69 71 69 69 73 75 74 73
69 69 67 67 66 65 64 64 64 64 65 65 68 69 70 70 68 67 68 68 68 68 69 69 69 68 67 66 65 65 65 67 65 65 65 65 64 65 65 66 66 65 66 67 67 66 67 67 66 66 65 63 61 62 66 64 65 67 71 68 72 73 72
68 67 66 66 66 65 64 64 64 65 65 65 66 70 69 68 67 67 67 67 68 68 68 68 68 67 67 66 65 66 65 66 66 65 65 65 65 66 65 65 66 66 66 66 66 66 66 67 67 67 66 63 63 61 60 61 61 61 67 69 65 70 72
68 67 67 66 64 63 62 64 64 64 64 65 66 68 68 67 66 66 66 66 67 67 68 68 68 67 66 66 66 66 66 66 66 66 66 66 65 65 65 66 66 65 66 66 65 65 66 66 67 67 66 66 64 61 61 60 61 63 63 67 68 67 70
69 68 67 66 64 63 63 64 64 63 63 65 67 67 66 66 65 65 66 67 67 67 67 66 67 66 67 65 65 65 66 67 66 65 65 66 66 65 65 65 65 65 66 65 66 66 66 66 67 68 67 67 64 62 61 62 60 64 66 62 66 70 68
70 68 68 66 64 65 65 65 64 63 64 66 66 66 66 66 66 67 68 67 67 67 67 67 67 67 66 66 66 66 66 66 66 65 65 66 66 66 65 64 65 65 66 67 66 66 67 67 67 67 67 66 65 63 63 62 60 60 66 65 66 68 70
69 69 67 66 65 65 66 65 65 65 67 67 68 67 67 68 69 68 68 67 67 66 66 66 67 67 66 66 66 66 67 67 66 65 65 65 67 66 66 65 65 65 66 65 66 67 67 68 68 67 67 67 65 64 62 61 59 60 64 67 66 67 69
70 69 67 66 65 65 64 65 65 67 67 67 68 68 68 68 68 68 68 67 67 67 67 67 67 67 66 65 65 66 66 66 65 65 65 65 65 66 65 65 65 65 66 65 65 66 67 67 67 67 66 65 65 63 64 61 60 60 58 64 65 68 68
69 68 66 64 64 66 66 66 68 67 67 67 68 68 68 68 68 69 68 67 68 68 68 68 67 67 66 66 66 65 66 66 65 64 65 65 66 66 65 65 65 65 65 65 65 65 66 66 67 66 65 66 64 63 64 64 61 59 59 61 65 65 65
68 67 65 64 64 66 67 67 68 68 68 68 69 69 69 70 69 69 68 69 69 68 68 67 67 68 67 67 66 66 66 66 66 66 66 67 66 66 65 64 64 65 65 64 65 65 65 66 65 65 65 66 65 63 64 64 64 61 61 60 63 64 65
66 65 64 65 65 67 67 68 69 70 69 69 69 69 69 70 69 69 67 69 69 68 68 68 68 67 67 67 67 66 67 67 66 66 66 66 65 66 65 65 65 65 65 64 64 64 64 63 65 64 64 65 65 64 64 64 64 64 62 61 62 65 65
65 64 64 64 65 67 68 69 70 70 71 69 69 69 69 69 70 69 70 70 69 69 69 68 68 68 68 67 67 66 66 66 66 66 66 66 66 66 65 65 65 65 65 63 63 63 63 63 64 63 63 63 64 64 63 64 64 64 63 63 62 61 64
65 64 65 65 65 67 68 68 70 70 70 69 69 69 69 69 69 70 70 69 69 69 68 68 68 67 67 67 67 66 65 65 65 66 66 66 66 66 66 65 64 64 64 64 62 62 62 63 63 62 62 62 63 62 62 63 64 63 63 62 62 62 62
66 65 65 66 66 67 67 68 70 70 70 69 69 70 70 69 69 71 70 69 69 69 68 68 68 68 67 66 65 65 65 64 65 65 65 66 65 65 65 64 63 63 62 61 60 60 59 59 62 62 62 61 61 61 61 62 62 62 62 62 61 60 61
66 66 65 66 66 66 67 68 69 69 69 69 69 70 70 70 69 69 70 69 69 68 67 66 67 66 66 66 66 65 65 66 65 64 65 65 65 65 65 63 62 60 57 53 50 51 51 51 57 59 59 60 59 60 60 61 61 61 61 61 60 60 59
66 66 67 67 66 66 67 68 68 68 69 70 70 70 70 69 70 68 68 68 68 66 66 67 59 57 60 66 66 66 65 65 65 65 64 64 64 64 63 62 59 56 54 54 52 48 46 46 48 53 56 57 57 58 58 58 59 59 59 59 58 58 56
66 65 66 66 65 65 66 67 67 68 68 69 68 69 68 68 68 68 68 67 66 65 65 61 46 46 49 55 65 65 65 64 65 64 64 63 63 62 63 63 61 57 56 54 53 45 45 45 46 45 46 48 51 55 56 56 57 58 57 58 58 58 56
65 64 64 64 65 65 65 66 67 68 67 67 67 68 67 67 67 67 67 67 65 64 62 49 44 44 46 44 49 63 65 65 64 64 65 64 64 63 63 63 63 63 62 62 61 55 50 45 44 43 42 43 42 44 46 52 55 56 55 56 56 57 56
63 63 64 64 65 64 65 66 67 67 67 67 67 66 67 66 66 66 66 65 64 63 60 44 43 44 43 45 41 52 67 65 65 65 65 64 63 63 63 62 62 62 62 59 61 63 61 56 47 44 45 44 43 43 40 39 42 53 56 56 56 56 57
62 63 64 64 63 64 64 66 67 68 67 67 66 66 66 65 65 65 65 65 64 62 59 45 44 44 45 42 42 45 68 65 65 65 64 64 64 64 63 63 62 61 61 61 60 59 62 63 63 60 57 57 58 54 44 41 39 39 46 55 58 56 57
63 62 63 63 63 64 65 66 67 67 66 66 65 65 64 64 64 65 65 65 63 60 57 43 43 44 44 43 42 45 65 64 63 63 63 63 64 63 64 64 63 61 61 59 56 51 56 59 61 63 64 64 65 64 63 62 61 62 61 60 60 59 59
63 63 62 63 64 64 65 66 65 66 66 67 66 66 65 65 64 64 64 64 62 58 53 41 42 43 43 44 41 58 62 61 61 62 62 63 63 63 63 63 63 62 61 58 48 39 45 52 58 62 63 64 64 65 64 59 53 54 58 61 61 60 61
62 63 63 63 64 65 66 66 65 67 65 66 65 64 64 64 65 64 64 64 61 56 53 45 42 42 43 42 47 59 61 62 61 61 62 62 63 63 63 63 64 63 61 58 43 39 40 43 57 63 63 63 63 64 63 62 49 44 45 45 45 44 44
63 63 64 63 64 66 67 66 66 66 65 66 64 65 65 64 65 65 64 63 59 56 54 46 41 42 43 43 47 58 62 62 61 61 60 61 62 62 58 53 55 63 60 56 39 39 38 47 60 63 62 62 62 61 61 62 63 59 45 43 43 43 43
65 64 64 64 65 66 66 66 66 66 66 66 65 66 65 64 64 64 64 61 54 55 55 48 41 42 43 43 47 55 59 63 60 60 60 60 62 61 59 57 48 51 56 47 36 40 38 46 59 62 61 61 60 60 59 60 60 60 61 62 62 60 57
65 63 63 65 67 67 66 66 66 65 66 66 65 65 64 64 62 61 60 59 57 57 54 51 46 41 42 43 43 54 59 63 60 60 61 62 61 62 61 60 51 39 38 38 40 37 40 38 52 60 61 61 59 57 59 58 59 60 60 62 62 63 62
64 65 65 67 68 65 64 64 64 65 63 63 60 56 54 55 56 55 58 58 58 57 55 53 48 41 42 42 42 44 57 62 63 62 63 63 63 62 62 62 61 43 39 38 40 37 38 39 39 54 60 59 57 51 47 55 58 54 62 63 63 63 63
64 64 66 66 64 63 64 63 60 57 56 54 54 55 55 55 55 56 58 58 58 57 56 52 52 42 41 42 42 40 53 62 59 63 63 64 65 65 64 65 61 46 38 39 38 40 38 38 38 54 55 44 39 38 50 55 57 60 63 63 63 62 62
62 64 63 65 64 62 61 59 59 60 58 57 57 56 57 57 57 57 57 58 58 58 57 55 49 50 42 41 42 41 40 48 45 56 63 64 64 66 67 63 56 42 39 38 39 38 39 38 41 53 38 38 40 38 41 56 58 62 62 62 61 61 61
63 63 62 62 62 60 60 60 60 60 59 58 57 57 58 58 58 57 57 57 58 59 59 59 50 48 48 40 42 41 40 39 39 53 56 62 66 67 66 62 54 39 39 38 38 38 39 39 49 39 38 40 39 41 53 56 61 62 62 60 60 60 61

ECMWFFLT1_sfc_temp_138.txt.gz
Temp
67 67 68 68 70 69 68 69 70 71 73 73 73 75 75 74 73 72 73 71 70 70 69 68 67 67 67 67 66 66 66 65 65 63 62 63 60 61 64 64 64 65 66 65 64 61 60 53 55 60 62 60 60 63 61 62 61 63 60 63 62 61 61
68 68 69 69 69 68 67 68 69 69 70 71 72 72 73 74 72 72 71 70 68 68 68 67 66 67 65 64 64 63 63 63 64 64 62 61 62 61 63 63 64 63 63 63 64 63 59 57 55 56 56 61 61 62 61 64 62 62 62 64 63 63 62
66 68 68 67 67 67 67 67 67 67 67 67 69 71 71 73 72 71 70 69 67 67 67 66 65 65 64 64 64 63 63 62 62 62 61 61 63 63 63 62 61 61 61 61 60 61 61 61 57 58 58 57 55 58 61 60 62 64 65 63 62 63 62
66 67 66 66 66 66 65 65 65 66 66 67 67 69 70 71 69 69 68 68 67 67 67 66 64 63 63 63 64 63 63 62 61 62 62 63 62 62 62 61 59 60 58 58 57 59 58 57 57 60 60 64 61 57 59 63 63 66 67 63 62 61 63
69 67 66 65 65 65 64 64 64 65 65 66 66 67 68 69 68 67 67 67 66 65 65 65 64 64 64 64 63 62 62 63 63 63 62 61 61 61 60 60 60 60 60 59 60 60 58 58 57 58 59 62 63 63 66 63 66 66 65 66 65 64 64
69 68 66 65 66 65 64 63 63 63 63 64 64 64 66 67 66 65 64 64 64 65 65 65 65 65 64 63 63 62 62 62 61 61 60 60 61 59 59 60 60 60 59 61 61 59 59 60 58 55 58 62 58 61 63 64 61 64 66 66 66 65 65
68 67 66 66 65 65 65 63 63 62 63 63 63 64 66 67 65 65 65 64 65 65 65 64 65 65 64 63 63 61 61 61 62 61 61 61 61 61 61 59 59 59 58 61 60 60 58 57 55 54 55 57 59 60 62 62 64 61 62 66 67 66 64
68 67 67 67 66 65 64 63 63 63 63 63 63 64 66 65 64 64 65 64 65 64 65 64 65 63 63 63 62 61 61 62 62 61 60 61 61 61 60 59 59 59 59 59 59 59 60 59 57 57 55 53 54 58 55 58 59 61 60 63 67 66 65
68 68 67 67 66 65 64 64 63 64 64 63 64 65 65 65 64 65 65 65 65 64 64 65 64 63 62 61 60 61 61 64 61 61 60 61 60 60 60 60 59 59 60 60 61 59 59 60 59 59 56 54 50 51 55 52 54 56 64 60 63 64 64
68 67 66 65 65 65 64 63 63 64 65 65 64 65 64 64 64 65 64 64 64 64 64 64 63 63 62 61 61 61 60 62 61 61 60 60 60 60 59 60 58 58 58 59 59 60 60 59 60 58 57 54 54 51 49 51 50 51 58 62 57 61 64
68 66 66 65 64 63 62 63 63 63 64 65 65 64 64 64 64 65 64 63 64 64 64 64 64 63 62 61 62 61 62 61 60 60 60 61 60 60 60 60 59 57 59 59 59 59 59 59 59 59 57 57 55 51 51 49 51 53 54 57 59 59 62
67 67 66 65 64 62 61 61 62 62 64 64 64 63 63 64 63 63 63 63 63 64 64 63 63 62 62 60 61 60 61 61 60 59 60 61 60 60 59 59 59 58 59 58 59 59 59 59 58 59 58 58 56 54 53 52 49 54 57 54 56 62 61
68 67 65 64 63 62 63 63 63 62 63 64 63 64 63 63 63 63 64 64 63 63 63 63 63 62 61 61 61 61 61 61 61 60 60 61 61 60 59 59 59 59 60 59 59 60 59 60 59 58 58 58 56 56 54 53 51 51 55 55 56 60 62
67 66 65 64 63 63 63 63 63 63 64 63 63 63 63 64 64 64 64 64 64 63 62 62 62 61 61 61 61 61 62 62 61 59 60 59 61 60 60 59 59 59 59 58 58 60 60 60 60 59 59 57 56 55 54 53 51 51 55 58 57 58 60
67 66 64 64 64 64 64 63 63 63 63 63 64 64 65 65 64 65 64 64 63 64 64 63 62 61 61 60 60 62 61 61 60 60 59 59 59 61 59 59 59 58 59 59 58 59 59 59 60 59 58 57 55 56 56 55 52 51 50 55 55 58 58
67 65 65 65 65 64 64 64 64 63 63 63 65 65 64 64 65 65 64 63 64 63 64 63 62 62 61 61 61 61 61 60 59 59 59 59 60 60 58 57 58 59 61 58 58 58 59 58 58 58 57 57 55 55 56 56 54 51 51 52 55 55 56
66 66 65 64 64 64 64 64 65 65 65 65 65 64 65 66 65 64 63 64 64 63 63 62 62 63 63 62 61 61 61 60 60 60 60 60 60 60 58 57 57 58 59 57 57 57 57 58 56 56 56 57 56 56 56 56 57 55 54 52 53 56 56
66 65 64 64 64 64 65 65 65 66 65 65 66 65 65 65 65 64 63 64 64 63 63 63 63 62 62 61 62 61 61 61 60 60 60 60 62 59 59 57 59 59 58 56 56 56 57 56 57 56 55 56 56 56 57 56 56 56 53 52 53 55 56
65 65 64 64 64 65 65 65 65 65 66 66 65 65 65 65 66 65 65 65 65 64 64 63 63 63 63 62 61 61 60 60 60 61 60 60 60 59 58 58 59 58 58 56 56 57 58 56 56 55 54 55 55 55 55 55 56 55 54 53 52 53 53
65 64 64 64 65 66 66 66 66 66 67 66 65 65 65 65 65 65 66 65 65 64 64 64 63 62 63 63 62 61 60 59 60 60 60 61 60 59 59 59 57 57 56 55 55 54 55 55 56 54 54 53 55 54 54 54 55 54 54 52 52 52 51
65 65 65 65 66 66 66 66 67 67 67 65 65 66 66 65 65 66 66 65 65 64 63 63 63 63 63 61 61 60 60 59 59 59 59 60 59 59 58 57 55 55 54 53 53 52 52 52 54 52 52 52 52 53 52 52 52 52 52 52 50 49 50
65 65 65 65 65 66 66 66 67 66 66 66 66 66 66 66 65 66 65 64 65 64 63 63 63 62 61 61 61 60 60 61 59 59 59 60 59 58 57 55 54 53 54 54 52 51 51 52 52 50 50 50 51 51 51 51 52 50 50 51 50 51 48
65 64 64 65 65 66 66 66 66 66 66 66 66 66 66 66 66 65 64 64 64 63 62 63 62 58 59 61 60 62 60 59 60 59 58 57 57 56 55 54 55 58 56 55 53 49 47 48 51 51 50 50 49 49 49 48 48 49 50 48 48 48 47
65 64 65 65 64 65 66 66 66 66 65 66 65 65 65 65 65 65 64 63 62 62 60 57 50 50 52 56 60 59 59 58 59 59 57 56 54 54 54 55 54 55 55 54 50 47 47 47 46 47 49 50 51 50 48 47 46 48 47 48 50 49 46
64 64 64 64 64 65 65 65 65 65 65 64 65 64 63 64 64 63 63 63 61 59 55 49 45 45 44 45 54 60 59 59 59 58 58 57 56 55 55 55 56 55 54 54 53 50 48 47 45 45 44 44 45 46 48 48 48 46 46 46 47 47 47
64 64 64 64 64 64 65 64 65 65 64 65 64 63 63 63 62 63 62 62 60 56 54 45 45 44 43 42 42 55 60 59 59 59 58 58 58 57 57 56 56 57 58 60 58 54 52 51 48 45 46 45 45 43 42 40 43 48 48 46 46 47 47
64 64 64 64 64 64 64 64 64 64 64 64 63 63 62 61 62 62 61 61 58 56 54 46 44 44 43 41 40 49 62 59 59 59 59 59 58 57 57 56 55 55 55 56 53 53 55 54 52 50 48 48 49 50 45 41 40 40 45 48 47 47 49
64 63 64 63 63 63 63 63 64 64 63 63 62 61 61 61 61 61 61 61 57 55 54 44 44 43 43 43 43 48 59 59 58 58 59 59 58 58 58 58 57 55 54 51 49 47 49 50 51 54 52 50 51 52 51 50 49 50 50 51 51 50 51
64 63 63 63 63 63 63 63 63 63 63 63 63 62 61 61 60 61 61 60 56 54 51 43 44 43 44 44 45 55 58 57 57 57 58 58 58 58 57 57 56 54 53 50 45 41 44 44 49 52 54 56 56 54 54 55 51 51 52 52 51 51 52
62 62 62 62 62 62 62 62 63 63 62 62 62 61 61 60 61 61 60 59 54 52 50 45 44 44 44 43 49 57 57 58 57 56 56 57 57 57 57 56 56 55 53 49 43 40 41 42 48 52 55 56 56 55 55 54 49 46 46 45 45 46 45
61 61 61 61 62 62 63 63 63 63 62 62 61 62 62 61 61 61 60 57 54 52 51 47 44 44 43 43 50 56 57 56 56 56 56 56 56 55 54 57 55 55 52 48 38 40 39 44 50 53 55 53 54 53 50 52 55 53 45 44 44 44 44
62 62 62 62 62 62 63 62 62 63 62 63 62 62 61 60 60 59 59 55 53 52 51 47 43 44 43 42 48 54 56 57 55 54 54 55 56 55 53 54 51 51 51 44 38 41 38 44 49 52 52 52 52 50 48 49 49 49 51 52 53 53 50
63 62 63 63 63 63 62 62 61 62 62 63 62 62 61 61 59 57 53 52 52 53 51 49 46 43 43 42 44 52 54 55 54 54 55 56 55 53 53 50 46 41 41 40 41 39 40 38 45 50 51 50 48 48 47 47 49 48 50 51 51 53 53
63 63 63 63 63 61 61 60 60 61 61 61 60 57 55 53 51 49 49 49 49 51 51 50 48 42 43 43 42 45 52 53 56 56 56 57 56 53 53 52 51 42 39 40 41 39 40 39 39 45 50 49 50 45 42 45 49 50 50 50 52 52 54
63 62 61 61 60 59 60 61 58 54 53 53 53 52 51 51 50 50 51 52 53 52 52 51 49 43 41 43 41 41 49 54 50 54 57 57 56 56 54 54 51 44 40 39 40 40 39 39 37 45 49 44 41 40 43 46 47 49 50 52 52 52 52
60 61 61 61 59 57 57 57 57 57 56 54 53 53 53 53 53 52 52 52 53 53 52 51 47 47 43 41 41 40 41 46 44 50 53 54 56 56 57 55 50 43 40 39 39 39 40 39 41 46 38 38 40 39 41 46 48 49 49 52 52 52 51
59 61 61 60 59 56 57 57 57 56 56 55 54 53 53 53 53 52 52 52 53 54 53 52 47 46 47 41 41 40 40 40 40 48 49 51 49 51 53 51 48 41 40 40 39 39 39 39 44 42 39 40 39 40 46 47 47 49 49 49 51 52 50

ECMWFFLT1_sfc_temp_141.txt.gz
Temp
65 64 64 65 66 66 65 66 66 66 68 68 68 68 68 68 67 66 66 65 65 64 64 62 61 62 62 62 62 61 61 60 59 56 55 55 54 58 59 60 61 61 60 58 58 54 51 50 52 56 56 57 57 56 55 57 57 58 55 57 59 57 56
65 64 65 65 64 65 64 64 64 64 64 66 67 68 68 67 67 65 65 64 63 63 63 62 62 63 61 60 59 59 59 59 59 58 57 56 56 55 55 57 58 57 57 57 57 56 51 49 50 50 52 55 56 53 54 56 57 57 55 58 60 58 58
64 64 65 64 63 64 63 63 62 62 64 64 65 67 67 67 65 65 65 64 63 63 63 62 62 61 60 60 59 58 59 59 59 59 58 56 57 57 56 55 54 54 55 55 55 54 54 52 50 50 52 53 52 51 52 56 57 56 57 59 58 59 57
64 64 63 63 63 63 63 62 62 62 63 64 64 64 64 65 65 65 64 64 64 63 62 62 61 61 59 59 59 59 59 60 59 59 59 58 57 57 56 55 53 54 54 52 51 53 52 50 50 52 53 55 52 53 57 55 59 59 60 58 58 57 57
65 64 63 62 62 63 63 63 63 62 61 62 62 62 63 64 63 63 64 64 63 61 60 61 61 61 61 61 60 59 59 59 59 59 57 56 56 55 54 54 53 55 54 54 54 54 52 51 51 50 51 53 56 55 59 55 59 60 58 59 59 57 58
65 64 63 63 63 63 63 63 62 60 60 60 60 61 60 62 62 62 62 61 61 61 61 61 61 61 61 60 60 59 59 58 57 56 55 55 55 54 54 54 55 54 53 54 54 54 53 52 51 48 52 53 50 53 55 56 55 57 59 59 59 57 59
64 64 64 63 63 63 63 62 62 60 60 60 60 60 61 62 62 62 62 61 62 62 62 61 61 62 61 60 59 58 57 56 55 55 55 55 55 54 55 54 54 54 53 54 54 54 53 52 50 49 49 50 49 52 54 54 56 56 56 58 59 57 57
64 64 64 64 64 64 63 62 61 60 59 59 59 60 61 61 61 62 62 62 62 62 62 62 61 60 60 59 58 57 57 56 56 56 55 56 56 55 54 54 54 54 53 54 53 54 54 54 53 51 48 49 48 48 49 50 54 54 53 56 58 57 56
64 64 63 64 64 64 63 62 61 60 60 59 60 60 60 61 61 62 62 62 62 62 62 61 60 59 58 58 57 57 57 58 56 55 55 55 55 54 54 54 55 54 55 55 55 53 53 54 53 52 51 48 46 48 46 46 47 50 55 54 54 56 56
64 63 63 64 64 63 63 61 60 60 60 60 60 61 60 61 61 62 62 62 62 61 61 60 60 59 58 57 57 56 56 55 55 55 54 55 54 54 54 54 54 54 54 55 55 55 54 54 53 52 52 51 48 44 43 42 46 46 52 53 53 55 55
64 63 63 63 63 62 60 60 60 60 60 61 61 61 61 61 61 63 61 61 61 61 60 60 60 58 57 57 57 56 54 55 55 55 56 56 55 55 55 55 54 54 54 55 55 54 53 53 52 53 52 51 50 47 45 42 46 50 49 49 52 54 53
64 63 63 63 63 61 60 59 60 60 60 60 60 60 60 60 60 61 61 60 59 59 59 59 58 58 58 57 56 55 55 56 55 55 55 56 56 55 54 54 54 53 53 53 54 55 55 54 52 52 52 52 52 50 48 44 42 48 51 50 49 52 54
65 64 62 61 61 60 60 60 60 60 59 60 60 60 59 60 61 61 61 60 59 59 58 58 58 58 56 55 55 55 55 55 55 55 55 56 56 54 54 53 52 53 51 52 52 53 53 55 55 53 53 52 51 50 48 45 44 47 48 52 50 52 53
64 64 62 61 60 60 60 60 60 60 60 59 59 59 59 60 61 61 60 60 59 58 58 58 58 57 56 55 55 56 55 55 55 54 55 55 55 54 54 54 54 53 53 53 52 53 53 53 54 53 53 50 49 49 49 45 45 46 44 48 51 52 53
64 63 62 61 60 60 60 60 60 60 59 59 60 60 59 60 60 60 60 60 59 58 58 57 56 56 56 56 55 57 55 55 54 53 53 53 53 54 53 54 54 54 53 53 53 54 54 53 53 51 51 52 49 50 50 48 47 47 46 47 49 52 53
63 63 62 61 60 59 60 59 60 59 59 59 60 60 60 60 60 59 59 58 58 58 58 57 56 56 55 55 56 56 55 54 53 53 53 53 54 53 52 52 52 52 54 52 52 52 53 53 53 52 51 50 50 49 50 51 48 47 47 47 47 51 51
63 62 62 61 59 59 60 60 60 60 60 60 60 59 59 59 59 58 58 58 58 57 57 56 57 57 56 55 55 54 54 54 54 53 54 53 53 54 52 52 52 52 52 52 51 51 52 52 51 51 50 49 49 50 50 49 50 51 49 47 49 51 50
62 62 62 61 59 59 60 60 60 60 59 59 59 58 58 59 58 58 57 57 57 56 56 57 57 55 55 54 55 55 55 54 53 53 53 54 56 52 52 51 51 52 51 51 50 51 51 51 52 50 49 49 49 49 50 49 49 49 47 46 48 49 49
62 62 61 59 59 59 60 60 60 60 60 58 58 58 58 59 59 58 58 58 57 56 57 56 56 55 55 55 55 54 52 52 53 53 52 52 52 51 51 51 51 51 50 49 48 49 50 50 49 48 47 48 48 47 48 48 49 49 48 45 47 48 47
63 62 60 59 59 60 60 60 60 60 59 59 59 58 58 58 58 58 58 57 57 57 57 56 55 54 54 54 53 53 53 53 53 53 52 52 52 51 51 50 49 49 48 48 48 49 50 49 48 46 46 45 46 46 47 47 48 48 47 45 46 45 46
63 62 60 60 60 60 60 60 60 60 59 59 59 59 58 58 58 58 57 57 57 57 56 55 55 54 54 53 53 53 54 53 53 52 52 52 51 50 49 48 48 47 47 47 48 48 49 48 47 45 43 45 45 45 45 45 45 44 45 45 43 43 43
63 62 61 60 60 60 60 60 60 59 59 59 59 59 58 58 58 57 57 57 57 56 56 56 56 55 53 53 53 54 53 53 52 52 51 50 50 49 48 48 48 48 52 54 53 52 52 52 47 46 43 43 44 44 43 44 44 43 43 43 43 43 41
62 62 60 60 60 60 60 59 59 59 59 59 58 58 58 58 57 56 56 56 56 56 56 56 58 55 55 54 54 55 53 53 52 51 50 49 48 48 48 48 53 58 56 55 53 50 48 50 52 49 45 44 44 43 41 41 42 42 43 42 41 41 41
62 61 60 60 60 60 60 59 59 59 59 58 58 58 58 57 55 56 56 55 55 55 56 57 51 48 49 52 54 53 53 52 52 51 50 50 48 48 48 50 50 55 55 53 51 48 47 46 46 47 49 51 51 44 41 40 40 41 42 41 41 40 40
62 61 60 60 60 60 59 59 59 58 58 57 57 57 57 56 55 55 55 55 53 52 52 52 46 48 48 49 53 53 53 52 52 51 50 49 49 49 50 51 52 52 51 51 50 47 48 47 45 45 44 44 44 44 46 44 44 41 42 42 40 40 40
61 61 60 61 62 61 60 59 58 58 58 57 57 57 56 55 55 54 54 52 50 50 48 45 46 47 47 48 49 53 53 52 52 51 50 51 51 50 51 52 52 52 54 59 53 48 47 48 48 47 46 46 46 45 43 42 42 45 41 40 41 40 41
61 61 61 61 62 62 60 59 58 59 58 58 58 57 56 55 55 54 53 51 50 49 48 46 45 45 45 46 47 50 53 52 52 52 52 52 52 51 51 52 52 52 52 52 50 49 48 47 46 46 45 44 43 46 46 44 42 41 42 44 42 42 42
61 61 61 61 62 61 60 59 58 58 58 59 59 58 56 55 55 53 52 51 50 49 49 44 44 45 44 45 47 49 53 54 53 53 53 53 53 52 52 53 53 52 50 48 47 46 43 42 44 46 45 44 45 45 45 44 44 44 43 44 44 44 46
61 61 61 61 61 61 60 59 58 57 58 58 58 58 56 57 55 53 52 51 50 48 45 42 44 44 44 45 48 53 53 53 52 52 52 52 52 52 53 54 53 51 50 47 45 43 44 42 43 45 45 45 46 45 46 50 47 46 47 45 45 46 47
61 61 61 60 60 60 59 59 58 59 59 58 58 57 56 56 55 53 51 51 49 47 45 43 43 44 44 45 49 52 53 53 52 52 51 52 52 52 52 54 53 51 48 46 42 39 41 45 43 45 45 45 46 46 45 48 47 44 43 43 43 43 43
60 60 60 60 60 60 60 60 59 59 59 58 57 57 56 56 55 52 50 49 50 48 45 44 42 43 44 46 51 52 52 51 50 51 51 50 50 50 53 57 54 51 48 46 40 39 41 45 43 45 44 44 45 43 44 43 46 46 47 46 45 44 44
61 60 60 60 60 60 60 59 59 60 59 59 57 56 55 55 54 51 50 50 52 50 48 46 42 43 43 45 49 50 51 51 50 49 50 49 48 50 51 54 54 50 49 44 38 39 41 44 43 44 45 43 42 44 43 40 41 43 44 46 47 48 48
60 60 60 59 60 59 59 58 59 60 59 59 57 56 55 55 53 49 50 50 49 48 46 45 45 42 43 44 46 49 50 49 49 47 49 51 50 48 48 48 48 43 42 40 39 38 39 41 43 42 42 42 43 45 42 39 44 43 41 42 43 45 46
59 60 60 59 59 58 58 59 59 59 58 57 56 54 54 52 48 46 48 48 47 48 48 46 45 41 43 43 44 46 49 50 50 50 50 51 50 48 48 47 45 43 41 40 40 39 39 39 41 41 41 42 45 44 40 40 41 47 41 42 43 45 46
59 59 59 59 58 57 58 60 60 57 53 55 54 52 49 46 45 45 45 46 47 47 49 49 46 42 42 42 42 44 49 47 48 51 52 52 50 50 50 49 47 44 41 41 40 40 40 38 37 41 41 43 40 40 40 42 41 42 43 44 42 43 44
57 59 58 59 58 57 58 57 56 55 54 53 52 50 49 48 47 46 46 46 47 47 48 48 46 45 42 41 41 42 44 44 42 49 48 49 49 51 51 51 50 45 40 41 40 40 40 39 41 42 39 38 40 39 41 41 40 43 41 42 42 43 42
58 58 56 55 54 54 54 55 54 54 54 53 51 50 50 49 49 48 47 48 48 48 47 46 45 45 45 41 40 41 41 40 41 46 47 48 46 45 49 51 49 42 40 41 40 40 39 40 40 41 40 40 40 41 41 40 41 41 41 41 42 40 43

ECMWFFLT1_sfc_temp_144.txt.gz
Temp
64 63 64 64 64 65 64 64 64 64 64 65 65 64 64 64 64 63 63 62 62 62 62 60 60 59 59 60 59 59 58 58 59 59 56 55 58 58 58 57 57 59 58 52 56 53 49 48 48 53 52 50 51 50 51 51 53 53 52 52 54 52 52
64 64 64 64 64 64 63 63 64 63 63 64 64 64 63 64 64 62 62 61 61 61 62 60 59 59 58 58 58 58 57 56 57 55 55 52 54 56 57 56 57 55 53 54 54 51 47 45 46 47 50 52 53 50 50 50 52 52 53 54 57 55 57
64 63 64 63 63 63 62 62 61 62 63 62 62 63 62 63 62 62 62 61 61 61 61 59 59 58 57 57 58 58 58 57 55 55 54 52 53 52 54 56 55 52 54 53 51 50 50 48 49 48 48 50 50 51 53 53 53 53 53 55 55 55 55
63 64 63 62 62 62 61 61 61 61 61 61 61 61 61 62 61 62 60 60 61 61 61 60 59 59 57 57 58 58 58 57 55 55 54 53 53 53 52 51 53 55 52 49 53 50 48 47 48 49 49 49 49 51 52 53 53 54 54 54 55 55 55
64 64 64 63 63 62 61 60 60 60 60 60 59 59 60 61 61 60 61 60 60 60 59 59 59 59 58 58 58 58 57 56 57 56 54 53 53 53 51 50 50 52 52 52 51 51 53 51 53 50 49 49 51 52 54 52 54 53 53 55 56 55 55
64 64 64 63 63 62 61 60 60 59 58 59 58 59 59 60 60 59 59 59 59 60 59 59 59 59 58 57 57 58 56 55 55 55 54 53 53 52 50 50 51 52 51 50 52 51 50 51 53 50 49 46 48 49 52 50 52 53 53 55 57 54 55
64 64 63 63 63 62 62 61 61 60 59 58 59 59 60 61 60 60 59 59 59 59 60 59 59 59 58 58 58 57 55 54 54 54 53 52 51 51 51 52 51 51 50 51 50 51 50 52 50 52 49 46 45 48 48 48 51 52 53 53 55 55 53
64 63 63 63 63 62 61 61 60 59 58 58 59 59 60 60 59 59 59 59 59 60 60 60 60 59 59 59 58 56 55 54 54 53 52 53 53 52 51 51 52 51 50 50 50 51 51 50 51 51 52 49 45 44 46 46 46 49 51 54 54 56 54
64 63 62 62 62 62 62 61 60 59 58 58 58 59 59 60 59 59 59 59 60 60 60 60 59 58 58 57 56 56 55 56 54 53 52 52 52 51 51 51 52 51 52 51 52 50 50 50 49 48 51 51 48 42 43 43 43 47 51 52 50 52 52
63 62 62 62 62 62 61 60 60 58 58 58 59 59 59 59 59 59 60 59 58 59 59 59 59 58 58 57 56 55 54 54 54 52 52 52 51 51 51 52 51 51 50 52 52 51 51 51 50 48 48 49 50 47 38 40 44 43 50 49 50 52 51
63 63 62 62 62 61 61 60 60 58 58 58 59 59 59 59 59 61 60 59 59 59 59 59 59 58 57 56 55 54 53 53 53 53 53 52 51 52 52 52 52 52 52 51 50 51 51 51 50 50 49 47 47 47 37 38 44 45 48 45 48 52 50
62 62 62 62 62 61 61 60 60 58 58 58 59 58 58 58 58 59 60 58 59 59 58 58 58 57 57 55 54 54 54 54 53 52 51 52 51 52 52 52 52 51 52 51 51 51 51 51 50 49 49 49 48 47 46 40 40 47 48 49 47 48 50
63 62 62 61 62 62 61 61 60 58 57 58 58 58 58 58 59 58 58 59 58 58 58 57 57 56 55 54 54 54 53 53 52 52 51 50 52 51 51 51 50 50 50 50 51 50 49 51 51 49 50 49 47 48 47 42 43 47 47 50 48 49 48
62 62 61 61 61 61 61 61 60 58 57 57 58 57 58 58 59 58 59 59 59 57 55 56 56 56 55 54 53 53 52 52 52 50 51 50 51 51 51 51 50 50 49 50 49 50 50 49 49 50 49 47 47 46 47 43 43 44 44 44 46 48 48
62 61 61 61 60 60 60 60 59 58 57 57 58 58 58 58 58 59 59 58 57 57 57 56 55 55 55 54 53 54 52 51 50 50 50 50 50 52 51 51 50 49 50 50 50 49 49 48 49 48 47 48 46 47 44 44 42 42 45 44 46 46 47
62 61 61 61 60 60 60 58 58 58 57 57 57 58 58 57 58 59 59 58 57 56 56 55 54 54 53 53 53 52 52 51 51 51 51 51 51 51 51 50 49 50 51 50 49 48 49 48 48 48 47 47 47 46 46 45 42 42 42 46 44 45 45
61 61 60 61 60 59 59 58 58 58 58 58 57 57 57 58 58 58 58 57 56 55 55 54 53 54 54 54 53 52 51 51 50 50 51 51 50 51 50 49 48 49 50 49 48 47 47 47 47 47 46 46 47 47 46 45 45 43 41 44 43 44 45
61 61 60 60 59 59 57 57 58 58 58 57 57 57 56 56 57 58 57 56 55 54 54 54 54 53 52 53 52 51 51 50 50 50 50 50 53 50 50 49 48 49 49 48 46 46 47 46 46 47 46 46 45 45 46 46 45 44 43 42 44 43 44
61 61 60 60 59 59 58 57 58 58 59 57 56 56 55 55 56 56 55 55 54 54 53 53 53 52 52 52 52 51 51 51 50 50 49 49 48 49 49 48 48 48 48 47 46 45 46 45 46 46 45 45 44 45 44 44 44 44 43 41 41 44 41
62 61 60 60 60 59 58 57 58 58 58 58 56 55 55 55 55 55 54 54 54 54 54 53 52 52 52 52 52 51 50 50 49 49 47 48 48 48 48 48 47 48 48 47 46 46 45 45 46 45 45 44 43 43 43 43 43 43 43 41 40 40 41
62 61 61 60 59 58 57 57 58 58 58 57 56 56 55 55 54 55 54 54 54 54 53 52 51 52 52 52 51 51 51 50 49 48 47 47 47 47 47 47 47 47 47 47 46 45 47 46 46 45 44 45 43 42 41 41 42 42 42 41 39 39 38
62 61 60 59 59 58 57 57 57 57 57 56 56 56 56 55 54 54 53 53 53 54 53 53 52 52 52 51 51 51 51 50 49 48 47 46 46 46 45 45 45 46 50 53 52 51 51 51 49 47 45 44 43 42 41 41 41 40 40 41 40 38 37
61 60 60 59 59 58 57 57 57 56 56 56 55 55 55 55 55 54 53 53 53 53 53 53 56 54 54 52 51 52 50 49 49 48 47 45 45 45 46 46 50 56 56 55 54 51 49 50 53 51 48 46 44 42 40 40 41 39 41 39 40 38 38
61 60 59 59 59 58 57 57 56 56 56 55 55 55 55 54 54 54 54 53 52 53 53 54 51 47 48 51 52 50 50 49 48 48 47 46 45 46 46 48 49 55 56 55 51 48 47 47 47 47 49 50 50 45 41 39 38 37 40 39 39 36 37
60 60 59 59 59 58 57 56 56 56 55 55 55 54 54 54 53 53 53 53 52 52 52 52 45 46 46 48 52 51 50 49 48 47 47 46 47 47 47 49 50 51 50 51 50 47 47 46 44 44 44 44 44 45 45 42 40 38 37 38 38 38 37
60 59 59 59 59 58 56 56 56 55 55 55 54 54 54 53 52 52 53 52 51 51 50 47 45 46 46 46 47 51 49 49 48 47 47 47 47 46 47 49 49 48 51 57 51 47 48 47 46 45 45 45 44 44 42 42 44 42 37 39 41 37 37
60 60 60 60 59 58 56 56 56 56 56 54 54 54 53 53 52 52 52 52 50 49 49 46 45 46 46 45 45 48 50 49 48 48 48 47 46 47 48 48 48 48 50 51 46 47 48 48 47 47 45 44 44 47 45 43 41 41 43 42 39 41 40
60 60 60 60 59 58 58 56 56 55 55 55 55 54 53 52 52 51 51 50 49 48 49 45 44 45 45 45 45 48 50 50 49 48 48 47 48 48 47 48 47 48 48 47 47 46 47 47 46 46 44 43 42 42 42 42 42 41 42 42 42 42 44
60 60 60 60 59 59 58 58 57 56 55 54 55 53 52 52 51 50 50 49 48 46 44 43 44 45 45 44 46 51 50 50 49 48 48 48 48 48 47 47 47 48 47 46 48 45 46 46 45 44 44 43 42 42 42 46 45 44 44 42 41 42 44
60 60 60 59 59 59 58 58 58 57 55 54 53 52 51 51 51 50 49 49 48 46 45 43 43 44 44 44 47 51 51 50 50 49 48 48 49 49 48 47 47 47 47 45 44 40 42 46 45 43 43 42 42 41 42 43 44 43 42 42 42 42 42
60 60 60 59 59 59 59 59 59 58 57 54 53 53 52 51 50 50 50 48 49 47 45 45 43 44 44 45 50 52 51 51 49 49 48 49 48 48 48 55 52 47 46 44 41 40 41 47 46 44 43 43 43 42 44 39 41 42 44 44 42 41 41
60 60 60 60 60 59 59 59 58 58 58 57 55 53 52 50 48 48 49 49 51 49 46 46 43 43 44 45 50 51 50 49 48 46 47 47 47 49 50 54 54 49 48 45 39 39 40 46 46 45 43 44 43 41 41 39 38 39 39 42 42 44 45
60 60 60 60 60 59 59 58 57 57 57 57 55 54 53 51 49 49 49 49 49 48 46 45 44 42 44 45 47 50 49 49 48 46 46 47 47 47 48 50 50 44 43 41 40 39 40 42 47 44 41 41 41 42 39 36 41 40 40 41 39 40 40
59 60 61 60 59 58 58 57 57 56 56 55 55 53 52 51 50 47 47 46 47 47 48 45 43 42 42 44 45 48 49 50 49 48 47 47 47 46 46 47 48 44 41 40 40 40 40 41 43 45 41 40 39 42 38 36 41 47 41 42 41 41 43
60 60 60 60 58 57 57 58 58 56 54 54 53 51 49 47 46 45 45 45 46 46 49 48 45 42 41 42 44 46 49 49 50 49 49 48 47 45 46 45 46 44 40 41 40 40 40 40 41 46 40 40 39 39 38 40 39 39 40 41 40 41 41
58 60 59 59 58 56 56 57 56 55 55 54 52 49 48 47 46 45 45 46 47 47 48 49 46 46 41 42 42 45 45 46 44 50 49 48 48 48 47 47 47 45 40 40 40 40 40 39 41 42 40 39 38 38 39 37 37 39 38 39 39 41 41
58 59 57 56 55 55 54 54 54 54 53 52 51 50 48 48 48 47 46 45 46 46 47 48 45 45 44 40 41 41 41 43 44 49 50 48 47 46 47 47 47 42 40 40 40 40 40 40 43 40 38 38 38 39 39 38 38 39 39 39 40 40 42